Time,TemperatureF,DewpointF,PressureIn,WindDirection,WindDirectionDegrees,WindSpeedMPH,WindSpeedGustMPH,Humidity,HourlyPrecipIn,Conditions,Clouds,dailyrainin,SoftwareType,DateUTC
2013-03-05 00:00:00,34.8,25.3,30.04,WSW,242,0.0,0.0,68,0.00,,,0.00,Wunderground v.1.15,2013-03-05 05:00:00,
2013-03-05 00:05:00,34.7,25.2,30.04,WSW,241,0.0,0.0,68,0.00,,,0.00,Wunderground v.1.15,2013-03-05 05:05:00,
2013-03-05 00:06:00,34.7,25.2,30.04,WSW,242,0.0,0.0,68,0.00,,,0.00,Wunderground v.1.15,2013-03-05 05:06:00,
2013-03-05 00:08:00,34.7,25.2,30.04,WSW,242,0.0,0.0,68,0.00,,,0.00,Wunderground v.1.15,2013-03-05 05:08:00,
2013-03-05 00:10:00,34.7,24.9,30.03,WSW,242,0.0,0.0,67,0.00,,,0.00,Wunderground v.1.15,2013-03-05 05:10:00,
2013-03-05 00:11:00,34.7,24.5,30.03,WSW,242,0.0,0.0,66,0.00,,,0.00,Wunderground v.1.15,2013-03-05 05:11:00,
2013-03-05 00:16:00,34.7,24.5,30.03,WSW,242,0.0,0.0,66,0.00,,,0.00,Wunderground v.1.15,2013-03-05 05:16:00,
2013-03-05 00:17:00,34.8,24.6,30.03,WSW,242,0.0,0.0,66,0.00,,,0.00,Wunderground v.1.15,2013-03-05 05:17:00,
2013-03-05 00:19:00,34.8,25.0,30.03,WSW,242,0.0,0.0,67,0.00,,,0.00,Wunderground v.1.15,2013-03-05 05:19:00,
2013-03-05 00:22:00,35.0,25.9,30.03,WSW,242,0.0,0.0,69,0.00,,,0.00,Wunderground v.1.15,2013-03-05 05:22:00,
2013-03-05 00:23:00,35.1,25.9,30.03,WSW,242,0.0,0.0,69,0.00,,,0.00,Wunderground v.1.15,2013-03-05 05:23:00,
2013-03-05 00:25:00,35.1,25.9,30.03,WSW,242,0.0,0.0,69,0.00,,,0.00,Wunderground v.1.15,2013-03-05 05:25:00,
2013-03-05 00:29:00,35.2,26.0,30.03,WSW,242,0.0,0.0,69,0.00,,,0.00,Wunderground v.1.15,2013-03-05 05:29:00,
2013-03-05 00:31:00,35.3,26.1,30.03,WSW,242,0.0,0.0,69,0.00,,,0.00,Wunderground v.1.15,2013-03-05 05:31:00,
2013-03-05 00:33:00,35.3,26.1,30.03,WSW,242,0.0,0.0,69,0.00,,,0.00,Wunderground v.1.15,2013-03-05 05:33:00,
2013-03-05 00:36:00,35.4,26.2,30.03,WSW,242,0.0,0.0,69,0.00,,,0.00,Wunderground v.1.15,2013-03-05 05:36:00,
2013-03-05 00:37:00,35.4,26.2,30.03,WSW,241,0.0,0.0,69,0.00,,,0.00,Wunderground v.1.15,2013-03-05 05:37:00,
2013-03-05 00:41:00,35.5,26.0,30.03,WSW,242,0.0,0.0,68,0.00,,,0.00,Wunderground v.1.15,2013-03-05 05:41:00,
2013-03-05 00:42:00,35.6,26.1,30.03,WSW,241,0.0,0.0,68,0.00,,,0.00,Wunderground v.1.15,2013-03-05 05:42:00,
2013-03-05 00:43:00,35.6,25.7,30.03,WSW,242,0.0,0.0,67,0.00,,,0.00,Wunderground v.1.15,2013-03-05 05:43:00,
2013-03-05 00:46:00,35.7,24.7,30.03,WSW,242,0.0,0.0,64,0.00,,,0.00,Wunderground v.1.15,2013-03-05 05:46:00,
2013-03-05 00:48:00,35.8,24.8,30.03,WSW,242,0.0,0.0,64,0.00,,,0.00,Wunderground v.1.15,2013-03-05 05:48:00,
2013-03-05 00:49:00,35.9,24.9,30.03,WSW,242,0.0,0.0,64,0.00,,,0.00,Wunderground v.1.15,2013-03-05 05:49:00,
2013-03-05 00:52:00,36.1,25.1,30.03,WSW,243,0.0,0.0,64,0.00,,,0.00,Wunderground v.1.15,2013-03-05 05:52:00,
2013-03-05 00:53:00,36.1,25.5,30.03,WSW,242,0.0,0.0,65,0.00,,,0.00,Wunderground v.1.15,2013-03-05 05:53:00,
2013-03-05 00:55:00,36.2,25.2,30.03,WSW,242,0.0,0.0,64,0.00,,,0.00,Wunderground v.1.15,2013-03-05 05:55:00,
2013-03-05 00:57:00,36.3,25.3,30.04,WSW,242,0.0,0.0,64,0.00,,,0.00,Wunderground v.1.15,2013-03-05 05:57:00,
2013-03-05 01:01:00,36.4,25.4,30.04,WSW,242,0.0,0.0,64,0.00,,,0.00,Wunderground v.1.15,2013-03-05 06:01:00,
2013-03-05 01:03:00,36.4,25.7,30.04,WSW,242,0.0,0.0,65,0.00,,,0.00,Wunderground v.1.15,2013-03-05 06:03:00,
2013-03-05 01:05:00,36.4,25.7,30.04,WSW,242,0.0,0.0,65,0.00,,,0.00,Wunderground v.1.15,2013-03-05 06:05:00,
2013-03-05 01:08:00,36.4,26.1,30.04,WSW,242,0.0,0.0,66,0.00,,,0.00,Wunderground v.1.15,2013-03-05 06:08:00,
2013-03-05 01:11:00,36.4,26.5,30.04,WSW,242,0.0,0.0,67,0.00,,,0.00,Wunderground v.1.15,2013-03-05 06:11:00,
2013-03-05 01:12:00,36.4,26.5,30.04,WSW,242,0.0,0.0,67,0.00,,,0.00,Wunderground v.1.15,2013-03-05 06:12:00,
2013-03-05 01:13:00,36.4,26.5,30.04,WSW,242,0.0,0.0,67,0.00,,,0.00,Wunderground v.1.15,2013-03-05 06:13:00,
2013-03-05 01:19:00,36.4,26.8,30.04,WSW,242,0.0,0.0,68,0.00,,,0.00,Wunderground v.1.15,2013-03-05 06:19:00,
2013-03-05 01:20:00,36.4,26.8,30.04,WSW,242,0.0,0.0,68,0.00,,,0.00,Wunderground v.1.15,2013-03-05 06:20:00,
2013-03-05 01:24:00,36.3,26.7,30.04,WSW,242,0.0,0.0,68,0.00,,,0.00,Wunderground v.1.15,2013-03-05 06:24:00,
2013-03-05 01:26:00,36.3,26.4,30.04,WSW,242,0.0,0.0,67,0.00,,,0.00,Wunderground v.1.15,2013-03-05 06:26:00,
2013-03-05 01:27:00,36.3,26.7,30.04,WSW,242,0.0,0.0,68,0.00,,,0.00,Wunderground v.1.15,2013-03-05 06:27:00,
2013-03-05 01:30:00,36.3,26.7,30.04,WSW,242,0.0,0.0,68,0.00,,,0.00,Wunderground v.1.15,2013-03-05 06:30:00,
2013-03-05 01:33:00,36.3,26.7,30.04,WSW,242,0.0,0.0,68,0.00,,,0.00,Wunderground v.1.15,2013-03-05 06:33:00,
2013-03-05 01:34:00,36.3,27.1,30.04,WSW,242,0.0,0.0,69,0.00,,,0.00,Wunderground v.1.15,2013-03-05 06:34:00,
2013-03-05 01:38:00,36.4,27.5,30.04,WSW,242,0.0,0.0,70,0.00,,,0.00,Wunderground v.1.15,2013-03-05 06:38:00,
2013-03-05 01:40:00,36.4,27.2,30.04,WSW,242,0.0,0.0,69,0.00,,,0.00,Wunderground v.1.15,2013-03-05 06:40:00,
2013-03-05 01:43:00,36.5,27.3,30.04,WSW,242,0.0,0.0,69,0.00,,,0.00,Wunderground v.1.15,2013-03-05 06:43:00,
2013-03-05 01:44:00,36.5,27.3,30.04,WSW,242,0.0,0.0,69,0.00,,,0.00,Wunderground v.1.15,2013-03-05 06:44:00,
2013-03-05 01:46:00,36.5,27.3,30.04,WSW,242,0.0,0.0,69,0.00,,,0.00,Wunderground v.1.15,2013-03-05 06:46:00,
2013-03-05 01:48:00,36.6,27.4,30.04,WSW,242,0.0,0.0,69,0.00,,,0.00,Wunderground v.1.15,2013-03-05 06:48:00,
2013-03-05 01:49:00,36.6,27.4,30.04,WSW,243,0.0,0.0,69,0.00,,,0.00,Wunderground v.1.15,2013-03-05 06:49:00,
2013-03-05 01:50:00,36.7,27.5,30.04,WSW,242,0.0,0.0,69,0.00,,,0.00,Wunderground v.1.15,2013-03-05 06:50:00,
2013-03-05 01:52:00,36.7,27.5,30.04,WSW,243,0.0,0.0,69,0.00,,,0.00,Wunderground v.1.15,2013-03-05 06:52:00,
2013-03-05 01:55:00,36.7,27.8,30.04,WSW,242,0.0,0.0,70,0.00,,,0.00,Wunderground v.1.15,2013-03-05 06:55:00,
2013-03-05 01:56:00,36.7,27.8,30.04,WSW,242,0.0,0.0,70,0.00,,,0.00,Wunderground v.1.15,2013-03-05 06:56:00,
2013-03-05 02:00:00,36.8,27.6,30.04,WSW,242,0.0,0.0,69,0.00,,,0.00,Wunderground v.1.15,2013-03-05 07:00:00,
2013-03-05 02:01:00,36.8,27.6,30.04,WSW,242,0.0,0.0,69,0.00,,,0.00,Wunderground v.1.15,2013-03-05 07:01:00,
2013-03-05 02:05:00,36.9,27.7,30.04,WSW,242,0.0,0.0,69,0.00,,,0.00,Wunderground v.1.15,2013-03-05 07:05:00,
2013-03-05 02:06:00,37.0,27.4,30.04,WSW,242,0.0,0.0,68,0.00,,,0.00,Wunderground v.1.15,2013-03-05 07:06:00,
2013-03-05 02:10:00,37.1,27.9,30.04,WSW,242,0.0,0.0,69,0.00,,,0.00,Wunderground v.1.15,2013-03-05 07:10:00,
2013-03-05 02:11:00,37.1,27.9,30.04,WSW,242,0.0,0.0,69,0.00,,,0.00,Wunderground v.1.15,2013-03-05 07:11:00,
2013-03-05 02:12:00,37.1,28.2,30.04,WSW,242,0.0,0.0,70,0.00,,,0.00,Wunderground v.1.15,2013-03-05 07:12:00,
2013-03-05 02:15:00,37.2,28.0,30.04,WSW,242,0.0,0.0,69,0.00,,,0.00,Wunderground v.1.15,2013-03-05 07:15:00,
2013-03-05 02:16:00,37.2,28.0,30.04,WSW,242,0.0,0.0,69,0.00,,,0.00,Wunderground v.1.15,2013-03-05 07:16:00,
2013-03-05 02:17:00,37.2,28.0,30.04,WSW,242,0.0,0.0,69,0.00,,,0.00,Wunderground v.1.15,2013-03-05 07:17:00,
2013-03-05 02:21:00,37.2,27.6,30.04,WSW,242,0.0,0.0,68,0.00,,,0.00,Wunderground v.1.15,2013-03-05 07:21:00,
2013-03-05 02:22:00,37.2,27.6,30.03,WSW,242,0.0,0.0,68,0.00,,,0.00,Wunderground v.1.15,2013-03-05 07:22:00,
2013-03-05 02:26:00,37.2,28.0,30.03,WSW,242,0.0,0.0,69,0.00,,,0.00,Wunderground v.1.15,2013-03-05 07:26:00,
2013-03-05 02:27:00,37.3,28.1,30.03,WSW,242,0.0,0.0,69,0.00,,,0.00,Wunderground v.1.15,2013-03-05 07:27:00,
2013-03-05 02:31:00,37.5,28.6,30.03,WSW,242,0.0,0.0,70,0.00,,,0.00,Wunderground v.1.15,2013-03-05 07:31:00,
2013-03-05 02:32:00,37.5,28.6,30.03,WSW,242,0.0,0.0,70,0.00,,,0.00,Wunderground v.1.15,2013-03-05 07:32:00,
2013-03-05 02:33:00,37.5,28.6,30.04,WSW,242,0.0,0.0,70,0.00,,,0.00,Wunderground v.1.15,2013-03-05 07:33:00,
2013-03-05 02:36:00,37.5,28.6,30.03,WSW,242,0.0,0.0,70,0.00,,,0.00,Wunderground v.1.15,2013-03-05 07:36:00,
2013-03-05 02:37:00,37.6,28.7,30.04,WSW,242,0.0,0.0,70,0.00,,,0.00,Wunderground v.1.15,2013-03-05 07:37:00,
2013-03-05 02:38:00,37.6,28.7,30.04,WSW,242,0.0,0.0,70,0.00,,,0.00,Wunderground v.1.15,2013-03-05 07:38:00,
2013-03-05 02:41:00,37.6,28.7,30.04,WSW,242,0.0,0.0,70,0.00,,,0.00,Wunderground v.1.15,2013-03-05 07:41:00,
2013-03-05 02:42:00,37.6,28.7,30.04,WSW,243,0.0,0.0,70,0.00,,,0.00,Wunderground v.1.15,2013-03-05 07:42:00,
2013-03-05 02:43:00,37.6,28.7,30.04,WSW,242,0.0,0.0,70,0.00,,,0.00,Wunderground v.1.15,2013-03-05 07:43:00,
2013-03-05 02:46:00,37.6,28.7,30.03,WSW,242,0.0,0.0,70,0.00,,,0.00,Wunderground v.1.15,2013-03-05 07:46:00,
2013-03-05 02:47:00,37.6,28.7,30.04,WSW,242,0.0,0.0,70,0.00,,,0.00,Wunderground v.1.15,2013-03-05 07:47:00,
2013-03-05 02:48:00,37.6,28.7,30.04,WSW,242,0.0,0.0,70,0.00,,,0.00,Wunderground v.1.15,2013-03-05 07:48:00,
2013-03-05 02:51:00,37.7,28.4,30.04,WSW,242,0.0,0.0,69,0.00,,,0.00,Wunderground v.1.15,2013-03-05 07:51:00,
2013-03-05 02:52:00,37.7,28.4,30.03,WSW,242,0.0,0.0,69,0.00,,,0.00,Wunderground v.1.15,2013-03-05 07:52:00,
2013-03-05 02:53:00,37.7,28.8,30.03,WSW,242,0.0,0.0,70,0.00,,,0.00,Wunderground v.1.15,2013-03-05 07:53:00,
2013-03-05 02:56:00,37.9,29.0,30.03,WSW,242,0.0,0.0,70,0.00,,,0.00,Wunderground v.1.15,2013-03-05 07:56:00,
2013-03-05 02:57:00,37.9,28.6,30.03,WSW,242,0.0,0.0,69,0.00,,,0.00,Wunderground v.1.15,2013-03-05 07:57:00,
2013-03-05 02:58:00,37.9,28.3,30.03,WSW,242,0.0,0.0,68,0.00,,,0.00,Wunderground v.1.15,2013-03-05 07:58:00,
2013-03-05 02:59:00,37.9,28.3,30.03,WSW,242,0.0,0.0,68,0.00,,,0.00,Wunderground v.1.15,2013-03-05 07:59:00,
2013-03-05 03:01:00,38.0,28.4,30.03,WSW,242,0.0,0.0,68,0.00,,,0.00,Wunderground v.1.15,2013-03-05 08:01:00,
2013-03-05 03:02:00,38.0,28.4,30.03,WSW,243,0.0,0.0,68,0.00,,,0.00,Wunderground v.1.15,2013-03-05 08:02:00,
2013-03-05 03:03:00,38.1,28.5,30.03,WSW,242,0.0,0.0,68,0.00,,,0.00,Wunderground v.1.15,2013-03-05 08:03:00,
2013-03-05 03:04:00,38.1,28.5,30.03,WSW,242,0.0,0.0,68,0.00,,,0.00,Wunderground v.1.15,2013-03-05 08:04:00,
2013-03-05 03:07:00,38.1,28.8,30.03,WSW,242,0.0,0.0,69,0.00,,,0.00,Wunderground v.1.15,2013-03-05 08:07:00,
2013-03-05 03:08:00,38.1,29.2,30.04,WSW,242,0.0,0.0,70,0.00,,,0.00,Wunderground v.1.15,2013-03-05 08:08:00,
2013-03-05 03:09:00,38.2,29.3,30.04,WSW,242,0.0,0.0,70,0.00,,,0.00,Wunderground v.1.15,2013-03-05 08:09:00,
2013-03-05 03:12:00,38.2,29.3,30.03,WSW,243,0.0,0.0,70,0.00,,,0.00,Wunderground v.1.15,2013-03-05 08:12:00,
2013-03-05 03:13:00,38.2,29.3,30.03,WSW,243,0.0,0.0,70,0.00,,,0.00,Wunderground v.1.15,2013-03-05 08:13:00,
2013-03-05 03:14:00,38.2,29.6,30.03,WSW,242,0.0,0.0,71,0.00,,,0.00,Wunderground v.1.15,2013-03-05 08:14:00,
2013-03-05 03:17:00,38.2,30.0,30.04,WSW,242,0.0,0.0,72,0.00,,,0.00,Wunderground v.1.15,2013-03-05 08:17:00,
2013-03-05 03:18:00,38.2,30.0,30.04,WSW,242,0.0,0.0,72,0.00,,,0.00,Wunderground v.1.15,2013-03-05 08:18:00,
2013-03-05 03:19:00,38.2,30.0,30.04,WSW,242,0.0,0.0,72,0.00,,,0.00,Wunderground v.1.15,2013-03-05 08:19:00,
2013-03-05 03:22:00,38.2,30.0,30.03,WSW,242,0.0,0.0,72,0.00,,,0.00,Wunderground v.1.15,2013-03-05 08:22:00,
2013-03-05 03:24:00,38.1,29.9,30.03,WSW,242,0.0,0.0,72,0.00,,,0.00,Wunderground v.1.15,2013-03-05 08:24:00,
2013-03-05 03:27:00,38.1,29.5,30.03,WSW,242,0.0,1.0,71,0.00,,,0.00,Wunderground v.1.15,2013-03-05 08:27:00,
2013-03-05 03:28:00,38.1,29.5,30.03,WSW,242,0.0,1.0,71,0.00,,,0.00,Wunderground v.1.15,2013-03-05 08:28:00,
2013-03-05 03:29:00,38.1,29.5,30.03,WSW,242,1.0,1.0,71,0.00,,,0.00,Wunderground v.1.15,2013-03-05 08:29:00,
2013-03-05 03:33:00,38.2,29.3,30.03,WSW,242,0.0,0.0,70,0.00,,,0.00,Wunderground v.1.15,2013-03-05 08:33:00,
2013-03-05 03:34:00,38.2,28.6,30.03,WSW,242,0.0,0.0,68,0.00,,,0.00,Wunderground v.1.15,2013-03-05 08:34:00,
2013-03-05 03:38:00,38.3,28.7,30.03,WSW,243,0.0,0.0,68,0.00,,,0.00,Wunderground v.1.15,2013-03-05 08:38:00,
2013-03-05 03:39:00,38.3,28.7,30.03,WSW,242,0.0,0.0,68,0.00,,,0.00,Wunderground v.1.15,2013-03-05 08:39:00,
2013-03-05 03:44:00,38.3,29.0,30.03,WSW,242,0.0,0.0,69,0.00,,,0.00,Wunderground v.1.15,2013-03-05 08:44:00,
2013-03-05 03:49:00,38.3,28.7,30.03,WSW,242,0.0,0.0,68,0.00,,,0.00,Wunderground v.1.15,2013-03-05 08:49:00,
2013-03-05 03:54:00,38.4,29.1,30.03,WSW,243,0.0,0.0,69,0.00,,,0.00,Wunderground v.1.15,2013-03-05 08:54:00,
2013-03-05 03:55:00,38.4,29.1,30.03,WSW,243,0.0,0.0,69,0.00,,,0.00,Wunderground v.1.15,2013-03-05 08:55:00,
2013-03-05 03:59:00,38.4,28.4,30.03,WSW,243,0.0,0.0,67,0.00,,,0.00,Wunderground v.1.15,2013-03-05 08:59:00,
2013-03-05 04:00:00,38.4,28.4,30.03,WSW,242,0.0,0.0,67,0.00,,,0.00,Wunderground v.1.15,2013-03-05 09:00:00,
2013-03-05 04:04:00,38.5,27.7,30.03,WSW,242,0.0,0.0,65,0.00,,,0.00,Wunderground v.1.15,2013-03-05 09:04:00,
2013-03-05 04:05:00,38.5,27.7,30.03,WSW,243,0.0,0.0,65,0.00,,,0.00,Wunderground v.1.15,2013-03-05 09:05:00,
2013-03-05 04:09:00,38.6,28.6,30.03,WSW,242,0.0,0.0,67,0.00,,,0.00,Wunderground v.1.15,2013-03-05 09:09:00,
2013-03-05 04:10:00,38.7,28.7,30.03,WSW,242,0.0,0.0,67,0.00,,,0.00,Wunderground v.1.15,2013-03-05 09:10:00,
2013-03-05 04:15:00,38.7,29.0,30.03,WSW,242,0.0,0.0,68,0.00,,,0.00,Wunderground v.1.15,2013-03-05 09:15:00,
2013-03-05 04:20:00,38.6,28.6,30.04,WSW,242,0.0,0.0,67,0.00,,,0.00,Wunderground v.1.15,2013-03-05 09:20:00,
2013-03-05 04:21:00,38.6,28.9,30.04,WSW,242,0.0,0.0,68,0.00,,,0.00,Wunderground v.1.15,2013-03-05 09:21:00,
2013-03-05 04:25:00,38.6,28.6,30.04,WSW,242,0.0,0.0,67,0.00,,,0.00,Wunderground v.1.15,2013-03-05 09:25:00,
2013-03-05 04:26:00,38.5,28.5,30.04,WSW,242,0.0,0.0,67,0.00,,,0.00,Wunderground v.1.15,2013-03-05 09:26:00,
2013-03-05 04:30:00,38.5,28.9,30.04,WSW,242,0.0,0.0,68,0.00,,,0.00,Wunderground v.1.15,2013-03-05 09:30:00,
2013-03-05 04:31:00,38.5,28.9,30.03,WSW,243,0.0,0.0,68,0.00,,,0.00,Wunderground v.1.15,2013-03-05 09:31:00,
2013-03-05 04:35:00,38.5,28.1,30.03,WSW,242,0.0,0.0,66,0.00,,,0.00,Wunderground v.1.15,2013-03-05 09:35:00,
2013-03-05 04:36:00,38.5,28.1,30.04,WSW,242,0.0,0.0,66,0.00,,,0.00,Wunderground v.1.15,2013-03-05 09:36:00,
2013-03-05 04:37:00,38.5,28.1,30.03,WSW,242,0.0,0.0,66,0.00,,,0.00,Wunderground v.1.15,2013-03-05 09:37:00,
2013-03-05 04:41:00,38.4,27.7,30.04,WSW,242,0.0,0.0,65,0.00,,,0.00,Wunderground v.1.15,2013-03-05 09:41:00,
2013-03-05 04:42:00,38.4,28.0,30.04,WSW,242,0.0,0.0,66,0.00,,,0.00,Wunderground v.1.15,2013-03-05 09:42:00,
2013-03-05 04:46:00,38.3,27.9,30.04,WSW,242,0.0,0.0,66,0.00,,,0.00,Wunderground v.1.15,2013-03-05 09:46:00,
2013-03-05 04:47:00,38.3,27.9,30.04,WSW,242,0.0,0.0,66,0.00,,,0.00,Wunderground v.1.15,2013-03-05 09:47:00,
2013-03-05 04:51:00,38.1,27.7,30.04,WSW,242,0.0,0.0,66,0.00,,,0.00,Wunderground v.1.15,2013-03-05 09:51:00,
2013-03-05 04:52:00,38.1,27.7,30.04,WSW,242,0.0,0.0,66,0.00,,,0.00,Wunderground v.1.15,2013-03-05 09:52:00,
2013-03-05 04:56:00,37.9,27.5,30.04,WSW,242,0.0,0.0,66,0.00,,,0.00,Wunderground v.1.15,2013-03-05 09:56:00,
2013-03-05 04:57:00,37.9,27.5,30.04,WSW,242,0.0,0.0,66,0.00,,,0.00,Wunderground v.1.15,2013-03-05 09:57:00,
2013-03-05 05:01:00,37.7,27.0,30.04,WSW,242,0.0,0.0,65,0.00,,,0.00,Wunderground v.1.15,2013-03-05 10:01:00,
2013-03-05 05:02:00,37.6,26.9,30.04,WSW,243,0.0,0.0,65,0.00,,,0.00,Wunderground v.1.15,2013-03-05 10:02:00,
2013-03-05 05:03:00,37.6,27.3,30.04,WSW,242,0.0,0.0,66,0.00,,,0.00,Wunderground v.1.15,2013-03-05 10:03:00,
2013-03-05 05:06:00,37.5,26.8,30.05,WSW,242,0.0,0.0,65,0.00,,,0.00,Wunderground v.1.15,2013-03-05 10:06:00,
2013-03-05 05:07:00,37.5,27.2,30.05,WSW,242,0.0,0.0,66,0.00,,,0.00,Wunderground v.1.15,2013-03-05 10:07:00,
2013-03-05 05:08:00,37.4,27.4,30.05,WSW,242,0.0,0.0,67,0.00,,,0.00,Wunderground v.1.15,2013-03-05 10:08:00,
2013-03-05 05:11:00,37.3,27.3,30.05,WSW,242,0.0,0.0,67,0.00,,,0.00,Wunderground v.1.15,2013-03-05 10:11:00,
2013-03-05 05:12:00,37.3,27.3,30.05,WSW,242,0.0,0.0,67,0.00,,,0.00,Wunderground v.1.15,2013-03-05 10:12:00,
2013-03-05 05:13:00,37.2,27.6,30.05,WSW,243,0.0,0.0,68,0.00,,,0.00,Wunderground v.1.15,2013-03-05 10:13:00,
2013-03-05 05:17:00,37.0,27.1,30.05,WSW,242,0.0,0.0,67,0.00,,,0.00,Wunderground v.1.15,2013-03-05 10:17:00,
2013-03-05 05:18:00,36.9,27.3,30.05,WSW,242,0.0,0.0,68,0.00,,,0.00,Wunderground v.1.15,2013-03-05 10:18:00,
2013-03-05 05:22:00,36.7,27.5,30.04,WSW,243,0.0,0.0,69,0.00,,,0.00,Wunderground v.1.15,2013-03-05 10:22:00,
2013-03-05 05:23:00,36.7,27.5,30.05,WSW,242,0.0,0.0,69,0.00,,,0.00,Wunderground v.1.15,2013-03-05 10:23:00,
2013-03-05 05:27:00,36.6,27.7,30.05,WSW,242,0.0,0.0,70,0.00,,,0.00,Wunderground v.1.15,2013-03-05 10:27:00,
2013-03-05 05:29:00,36.5,27.6,30.04,WSW,242,0.0,0.0,70,0.00,,,0.00,Wunderground v.1.15,2013-03-05 10:29:00,
2013-03-05 05:32:00,36.5,27.6,30.04,WSW,243,0.0,0.0,70,0.00,,,0.00,Wunderground v.1.15,2013-03-05 10:32:00,
2013-03-05 05:34:00,36.4,27.5,30.04,WSW,242,0.0,0.0,70,0.00,,,0.00,Wunderground v.1.15,2013-03-05 10:34:00,
2013-03-05 05:37:00,36.4,27.2,30.04,WSW,242,0.0,0.0,69,0.00,,,0.00,Wunderground v.1.15,2013-03-05 10:37:00,
2013-03-05 05:38:00,36.4,27.2,30.04,WSW,242,0.0,0.0,69,0.00,,,0.00,Wunderground v.1.15,2013-03-05 10:38:00,
2013-03-05 05:39:00,36.3,27.1,30.04,WSW,242,0.0,0.0,69,0.00,,,0.00,Wunderground v.1.15,2013-03-05 10:39:00,
2013-03-05 05:42:00,36.3,27.4,30.04,WSW,242,0.0,0.0,70,0.00,,,0.00,Wunderground v.1.15,2013-03-05 10:42:00,
2013-03-05 05:43:00,36.3,27.4,30.04,WSW,242,0.0,0.0,70,0.00,,,0.00,Wunderground v.1.15,2013-03-05 10:43:00,
2013-03-05 05:44:00,36.3,27.4,30.04,WSW,242,0.0,0.0,70,0.00,,,0.00,Wunderground v.1.15,2013-03-05 10:44:00,
2013-03-05 05:47:00,36.3,27.4,30.04,WSW,242,0.0,0.0,70,0.00,,,0.00,Wunderground v.1.15,2013-03-05 10:47:00,
2013-03-05 05:48:00,36.3,27.4,30.04,WSW,242,0.0,0.0,70,0.00,,,0.00,Wunderground v.1.15,2013-03-05 10:48:00,
2013-03-05 05:49:00,36.3,27.4,30.04,WSW,242,0.0,0.0,70,0.00,,,0.00,Wunderground v.1.15,2013-03-05 10:49:00,
2013-03-05 05:53:00,36.3,27.4,30.04,WSW,242,0.0,0.0,70,0.00,,,0.00,Wunderground v.1.15,2013-03-05 10:53:00,
2013-03-05 05:54:00,36.3,27.1,30.04,WSW,242,0.0,0.0,69,0.00,,,0.00,Wunderground v.1.15,2013-03-05 10:54:00,
2013-03-05 05:58:00,36.3,27.1,30.04,WSW,242,0.0,0.0,69,0.00,,,0.00,Wunderground v.1.15,2013-03-05 10:58:00,
2013-03-05 05:59:00,36.3,27.1,30.04,WSW,242,0.0,0.0,69,0.00,,,0.00,Wunderground v.1.15,2013-03-05 10:59:00,
2013-03-05 06:03:00,36.3,27.1,30.04,WSW,242,0.0,0.0,69,0.00,,,0.00,Wunderground v.1.15,2013-03-05 11:03:00,
2013-03-05 06:04:00,36.3,27.1,30.04,WSW,242,0.0,0.0,69,0.00,,,0.00,Wunderground v.1.15,2013-03-05 11:04:00,
2013-03-05 06:08:00,36.3,26.7,30.04,WSW,242,0.0,0.0,68,0.00,,,0.00,Wunderground v.1.15,2013-03-05 11:08:00,
2013-03-05 06:09:00,36.3,26.7,30.04,WSW,242,0.0,0.0,68,0.00,,,0.00,Wunderground v.1.15,2013-03-05 11:09:00,
2013-03-05 06:13:00,36.3,27.1,30.03,WSW,242,0.0,0.0,69,0.00,,,0.00,Wunderground v.1.15,2013-03-05 11:13:00,
2013-03-05 06:14:00,36.3,27.1,30.03,WSW,242,0.0,0.0,69,0.00,,,0.00,Wunderground v.1.15,2013-03-05 11:14:00,
2013-03-05 06:18:00,36.4,27.2,30.03,WSW,242,0.0,0.0,69,0.00,,,0.00,Wunderground v.1.15,2013-03-05 11:18:00,
2013-03-05 06:19:00,36.4,27.2,30.03,WSW,242,0.0,0.0,69,0.00,,,0.00,Wunderground v.1.15,2013-03-05 11:19:00,
2013-03-05 06:23:00,36.3,27.1,30.03,WSW,242,0.0,1.0,69,0.00,,,0.00,Wunderground v.1.15,2013-03-05 11:23:00,
2013-03-05 06:24:00,36.3,27.1,30.03,WSW,242,0.0,1.0,69,0.00,,,0.00,Wunderground v.1.15,2013-03-05 11:24:00,
2013-03-05 06:29:00,36.3,27.4,30.03,WSW,242,0.0,1.0,70,0.00,,,0.00,Wunderground v.1.15,2013-03-05 11:29:00,
2013-03-05 06:34:00,36.2,27.0,30.03,WSW,242,0.0,0.0,69,0.00,,,0.00,Wunderground v.1.15,2013-03-05 11:34:00,
2013-03-05 06:39:00,36.0,27.2,30.03,WSW,242,0.0,0.0,70,0.00,,,0.00,Wunderground v.1.15,2013-03-05 11:39:00,
2013-03-05 06:40:00,36.0,27.2,30.03,WSW,242,0.0,0.0,70,0.00,,,0.00,Wunderground v.1.15,2013-03-05 11:40:00,
2013-03-05 06:44:00,35.9,27.4,30.03,WSW,242,0.0,0.0,71,0.00,,,0.00,Wunderground v.1.15,2013-03-05 11:44:00,
2013-03-05 06:45:00,35.9,27.4,30.03,WSW,243,0.0,0.0,71,0.00,,,0.00,Wunderground v.1.15,2013-03-05 11:45:00,
2013-03-05 06:49:00,35.8,27.3,30.03,WSW,242,0.0,0.0,71,0.00,,,0.00,Wunderground v.1.15,2013-03-05 11:49:00,
2013-03-05 06:50:00,35.8,27.3,30.03,WSW,242,0.0,0.0,71,0.00,,,0.00,Wunderground v.1.15,2013-03-05 11:50:00,
2013-03-05 06:55:00,35.8,27.7,30.03,WSW,242,0.0,0.0,72,0.00,,,0.00,Wunderground v.1.15,2013-03-05 11:55:00,
2013-03-05 07:00:00,35.8,28.0,30.03,WSW,242,0.0,0.0,73,0.00,,,0.00,Wunderground v.1.15,2013-03-05 12:00:00,
2013-03-05 07:01:00,35.7,27.9,30.03,WSW,242,0.0,0.0,73,0.00,,,0.00,Wunderground v.1.15,2013-03-05 12:01:00,
2013-03-05 07:05:00,35.8,28.6,30.02,WSW,242,0.0,0.0,75,0.00,,,0.00,Wunderground v.1.15,2013-03-05 12:05:00,
2013-03-05 07:06:00,35.8,28.6,30.02,WSW,242,0.0,1.0,75,0.00,,,0.00,Wunderground v.1.15,2013-03-05 12:06:00,
2013-03-05 07:10:00,35.8,28.6,30.02,WSW,242,0.0,1.0,75,0.00,,,0.00,Wunderground v.1.15,2013-03-05 12:10:00,
2013-03-05 07:11:00,35.8,28.6,30.02,WSW,242,0.0,0.0,75,0.00,,,0.00,Wunderground v.1.15,2013-03-05 12:11:00,
2013-03-05 07:15:00,35.9,29.1,30.02,WSW,242,0.0,0.0,76,0.00,,,0.00,Wunderground v.1.15,2013-03-05 12:15:00,
2013-03-05 07:16:00,35.9,29.1,30.02,WSW,242,0.0,0.0,76,0.00,,,0.00,Wunderground v.1.15,2013-03-05 12:16:00,
2013-03-05 07:20:00,36.1,28.9,30.02,WSW,242,0.0,0.0,75,0.00,,,0.00,Wunderground v.1.15,2013-03-05 12:20:00,
2013-03-05 07:21:00,36.1,28.9,30.02,WSW,242,0.0,0.0,75,0.00,,,0.00,Wunderground v.1.15,2013-03-05 12:21:00,
2013-03-05 07:26:00,36.2,28.7,30.02,WSW,242,0.0,0.0,74,0.00,,,0.00,Wunderground v.1.15,2013-03-05 12:26:00,
2013-03-05 07:27:00,36.2,28.7,30.02,WSW,242,0.0,0.0,74,0.00,,,0.00,Wunderground v.1.15,2013-03-05 12:27:00,
2013-03-05 07:31:00,36.3,28.8,30.02,WSW,242,0.0,0.0,74,0.00,,,0.00,Wunderground v.1.15,2013-03-05 12:31:00,
2013-03-05 07:32:00,36.3,28.8,30.02,WSW,242,0.0,0.0,74,0.00,,,0.00,Wunderground v.1.15,2013-03-05 12:32:00,
2013-03-05 07:36:00,36.5,29.0,30.01,WSW,242,0.0,0.0,74,0.00,,,0.00,Wunderground v.1.15,2013-03-05 12:36:00,
2013-03-05 07:37:00,36.6,29.1,30.01,WSW,242,0.0,0.0,74,0.00,,,0.00,Wunderground v.1.15,2013-03-05 12:37:00,
2013-03-05 07:41:00,37.0,29.1,30.02,WSW,242,0.0,0.0,73,0.00,,,0.00,Wunderground v.1.15,2013-03-05 12:41:00,
2013-03-05 07:42:00,37.1,28.9,30.01,WSW,242,0.0,0.0,72,0.00,,,0.00,Wunderground v.1.15,2013-03-05 12:42:00,
2013-03-05 07:46:00,37.8,27.8,30.01,SW,233,0.0,1.0,67,0.00,,,0.00,Wunderground v.1.15,2013-03-05 12:46:00,
2013-03-05 07:47:00,37.9,27.9,30.01,SW,233,0.0,1.0,67,0.00,,,0.00,Wunderground v.1.15,2013-03-05 12:47:00,
2013-03-05 07:51:00,38.7,27.9,30.01,SW,233,0.0,1.0,65,0.00,,,0.00,Wunderground v.1.15,2013-03-05 12:51:00,
2013-03-05 07:52:00,38.9,28.9,30.01,SW,233,0.0,1.0,67,0.00,,,0.00,Wunderground v.1.15,2013-03-05 12:52:00,
2013-03-05 07:56:00,39.3,28.9,30.02,SW,233,0.0,1.0,66,0.00,,,0.00,Wunderground v.1.15,2013-03-05 12:56:00,
2013-03-05 07:57:00,39.3,28.9,30.02,SW,233,0.0,1.0,66,0.00,,,0.00,Wunderground v.1.15,2013-03-05 12:57:00,
2013-03-05 07:58:00,39.4,29.0,30.01,SW,233,0.0,1.0,66,0.00,,,0.00,Wunderground v.1.15,2013-03-05 12:58:00,
2013-03-05 08:01:00,39.7,29.3,30.01,SW,233,0.0,0.0,66,0.00,,,0.00,Wunderground v.1.15,2013-03-05 13:01:00,
2013-03-05 08:02:00,39.9,29.5,30.01,SW,233,0.0,0.0,66,0.00,,,0.00,Wunderground v.1.15,2013-03-05 13:02:00,
2013-03-05 08:03:00,39.9,29.5,30.01,SW,233,0.0,0.0,66,0.00,,,0.00,Wunderground v.1.15,2013-03-05 13:03:00,
2013-03-05 08:06:00,40.3,27.9,30.01,SSE,167,1.0,1.0,61,0.00,,,0.00,Wunderground v.1.15,2013-03-05 13:06:00,
2013-03-05 08:07:00,40.5,27.7,30.01,SSE,167,0.0,1.0,60,0.00,,,0.00,Wunderground v.1.15,2013-03-05 13:07:00,
2013-03-05 08:08:00,40.6,28.2,30.02,SSE,167,0.0,1.0,61,0.00,,,0.00,Wunderground v.1.15,2013-03-05 13:08:00,
2013-03-05 08:11:00,41.3,28.4,30.02,SW,235,1.0,1.0,60,0.00,,,0.00,Wunderground v.1.15,2013-03-05 13:11:00,
2013-03-05 08:12:00,41.4,28.1,30.02,SE,136,1.0,1.0,59,0.00,,,0.00,Wunderground v.1.15,2013-03-05 13:12:00,
2013-03-05 08:13:00,41.5,27.8,30.02,SE,137,0.0,1.0,58,0.00,,,0.00,Wunderground v.1.15,2013-03-05 13:13:00,
2013-03-05 08:17:00,42.1,27.1,30.02,SSE,150,0.0,1.0,55,0.00,,,0.00,Wunderground v.1.15,2013-03-05 13:17:00,
2013-03-05 08:18:00,42.2,27.6,30.02,SE,145,1.0,1.0,56,0.00,,,0.00,Wunderground v.1.15,2013-03-05 13:18:00,
2013-03-05 08:19:00,42.3,26.8,30.01,SSE,150,1.0,1.0,54,0.00,,,0.00,Wunderground v.1.15,2013-03-05 13:19:00,
2013-03-05 08:22:00,42.7,27.2,30.01,SSE,150,0.0,1.0,54,0.00,,,0.00,Wunderground v.1.15,2013-03-05 13:22:00,
2013-03-05 08:23:00,42.8,27.3,30.02,SSE,151,0.0,1.0,54,0.00,,,0.00,Wunderground v.1.15,2013-03-05 13:23:00,
2013-03-05 08:24:00,42.9,26.9,30.01,SSW,195,2.0,2.0,53,0.00,,,0.00,Wunderground v.1.15,2013-03-05 13:24:00,
2013-03-05 08:27:00,43.3,26.4,30.01,SE,130,1.0,3.0,51,0.00,,,0.00,Wunderground v.1.15,2013-03-05 13:27:00,
2013-03-05 08:28:00,43.4,26.5,30.01,SE,131,1.0,3.0,51,0.00,,,0.00,Wunderground v.1.15,2013-03-05 13:28:00,
2013-03-05 08:29:00,43.6,26.6,30.01,SE,143,1.0,3.0,51,0.00,,,0.00,Wunderground v.1.15,2013-03-05 13:29:00,
2013-03-05 08:32:00,43.9,26.9,30.01,SSE,150,1.0,2.0,51,0.00,,,0.00,Wunderground v.1.15,2013-03-05 13:32:00,
2013-03-05 08:33:00,43.9,26.9,30.01,SSE,150,1.0,2.0,51,0.00,,,0.00,Wunderground v.1.15,2013-03-05 13:33:00,
2013-03-05 08:35:00,44.1,27.1,30.01,SSE,150,0.0,2.0,51,0.00,,,0.00,Wunderground v.1.15,2013-03-05 13:35:00,
2013-03-05 08:38:00,44.5,27.0,30.00,SE,131,1.0,2.0,50,0.00,,,0.00,Wunderground v.1.15,2013-03-05 13:38:00,
2013-03-05 08:40:00,44.7,27.2,30.00,ESE,116,0.0,1.0,50,0.00,,,0.00,Wunderground v.1.15,2013-03-05 13:40:00,
2013-03-05 08:43:00,45.0,27.0,30.00,SSE,155,0.0,1.0,49,0.00,,,0.00,Wunderground v.1.15,2013-03-05 13:43:00,
2013-03-05 08:45:00,45.2,27.6,30.00,SE,139,0.0,1.0,50,0.00,,,0.00,Wunderground v.1.15,2013-03-05 13:45:00,
2013-03-05 08:48:00,45.5,27.4,30.01,SSE,167,0.0,2.0,49,0.00,,,0.00,Wunderground v.1.15,2013-03-05 13:48:00,
2013-03-05 08:50:00,45.6,27.5,30.00,SSE,167,0.0,0.0,49,0.00,,,0.00,Wunderground v.1.15,2013-03-05 13:50:00,
2013-03-05 08:53:00,45.9,27.3,30.01,South,186,2.0,3.0,48,0.00,,,0.00,Wunderground v.1.15,2013-03-05 13:53:00,
2013-03-05 08:55:00,46.1,27.5,30.01,SSW,207,1.0,4.0,48,0.00,,,0.00,Wunderground v.1.15,2013-03-05 13:55:00,
2013-03-05 08:58:00,46.2,27.6,30.01,SW,224,3.0,5.0,48,0.00,,,0.00,Wunderground v.1.15,2013-03-05 13:58:00,
2013-03-05 09:00:00,46.4,28.3,30.01,SSW,209,2.0,3.0,49,0.00,,,0.00,Wunderground v.1.15,2013-03-05 14:00:00,
2013-03-05 09:03:00,46.6,27.9,30.01,SSW,210,4.0,6.0,48,0.00,,,0.00,Wunderground v.1.15,2013-03-05 14:03:00,
2013-03-05 09:05:00,46.9,27.7,30.01,SSW,211,4.0,6.0,47,0.00,,,0.00,Wunderground v.1.15,2013-03-05 14:05:00,
2013-03-05 09:08:00,47.1,27.4,30.01,SE,129,2.0,6.0,46,0.00,,,0.00,Wunderground v.1.15,2013-03-05 14:08:00,
2013-03-05 09:09:00,47.2,28.0,30.01,SSE,162,2.0,6.0,47,0.00,,,0.00,Wunderground v.1.15,2013-03-05 14:09:00,
2013-03-05 09:10:00,47.3,28.1,30.01,SSW,203,3.0,4.0,47,0.00,,,0.00,Wunderground v.1.15,2013-03-05 14:10:00,
2013-03-05 09:13:00,47.6,28.3,30.01,SW,217,1.0,4.0,47,0.00,,,0.00,Wunderground v.1.15,2013-03-05 14:13:00,
2013-03-05 09:14:00,47.7,28.4,30.01,South,185,2.0,4.0,47,0.00,,,0.00,Wunderground v.1.15,2013-03-05 14:14:00,
2013-03-05 09:16:00,47.8,28.5,30.01,SSW,209,2.0,6.0,47,0.00,,,0.00,Wunderground v.1.15,2013-03-05 14:16:00,
2013-03-05 09:18:00,48.1,28.8,30.01,SW,224,1.0,6.0,47,0.00,,,0.00,Wunderground v.1.15,2013-03-05 14:18:00,
2013-03-05 09:20:00,48.1,29.3,30.01,SSW,211,2.0,2.0,48,0.00,,,0.00,Wunderground v.1.15,2013-03-05 14:20:00,
2013-03-05 09:21:00,48.2,28.9,30.01,South,177,2.0,3.0,47,0.00,,,0.00,Wunderground v.1.15,2013-03-05 14:21:00,
2013-03-05 09:23:00,48.2,28.9,30.01,SW,224,4.0,6.0,47,0.00,,,0.00,Wunderground v.1.15,2013-03-05 14:23:00,
2013-03-05 09:24:00,48.1,28.8,30.01,South,184,1.0,6.0,47,0.00,,,0.00,Wunderground v.1.15,2013-03-05 14:24:00,
2013-03-05 09:25:00,48.1,28.8,30.01,SSW,212,4.0,6.0,47,0.00,,,0.00,Wunderground v.1.15,2013-03-05 14:25:00,
2013-03-05 09:26:00,48.0,28.7,30.01,South,180,1.0,6.0,47,0.00,,,0.00,Wunderground v.1.15,2013-03-05 14:26:00,
2013-03-05 09:28:00,47.9,29.1,30.01,SSW,211,2.0,6.0,48,0.00,,,0.00,Wunderground v.1.15,2013-03-05 14:28:00,
2013-03-05 09:29:00,47.9,28.6,30.01,SW,219,3.0,6.0,47,0.00,,,0.00,Wunderground v.1.15,2013-03-05 14:29:00,
2013-03-05 09:30:00,48.0,29.2,30.01,SW,215,1.0,2.0,48,0.00,,,0.00,Wunderground v.1.15,2013-03-05 14:30:00,
2013-03-05 09:31:00,48.0,29.2,30.01,SSW,198,1.0,2.0,48,0.00,,,0.00,Wunderground v.1.15,2013-03-05 14:31:00,
2013-03-05 09:34:00,48.0,29.7,30.01,SSW,211,2.0,2.0,49,0.00,,,0.00,Wunderground v.1.15,2013-03-05 14:34:00,
2013-03-05 09:35:00,48.1,29.3,30.01,SSW,208,1.0,2.0,48,0.00,,,0.00,Wunderground v.1.15,2013-03-05 14:35:00,
2013-03-05 09:37:00,48.1,29.3,30.01,SSW,208,2.0,2.0,48,0.00,,,0.00,Wunderground v.1.15,2013-03-05 14:37:00,
2013-03-05 09:39:00,48.1,29.3,30.01,SSE,158,1.0,2.0,48,0.00,,,0.00,Wunderground v.1.15,2013-03-05 14:39:00,
2013-03-05 09:40:00,48.1,29.3,30.01,SSE,158,0.0,1.0,48,0.00,,,0.00,Wunderground v.1.15,2013-03-05 14:40:00,
2013-03-05 09:42:00,48.1,29.3,30.01,SSE,158,0.0,1.0,48,0.00,,,0.00,Wunderground v.1.15,2013-03-05 14:42:00,
2013-03-05 09:44:00,48.2,29.4,30.01,SE,127,0.0,1.0,48,0.00,,,0.00,Wunderground v.1.15,2013-03-05 14:44:00,
2013-03-05 09:45:00,48.2,29.4,30.01,SE,127,0.0,1.0,48,0.00,,,0.00,Wunderground v.1.15,2013-03-05 14:45:00,
2013-03-05 09:46:00,48.2,29.4,30.01,SE,127,0.0,1.0,48,0.00,,,0.00,Wunderground v.1.15,2013-03-05 14:46:00,
2013-03-05 09:47:00,48.2,29.4,30.01,SE,127,0.0,1.0,48,0.00,,,0.00,Wunderground v.1.15,2013-03-05 14:47:00,
2013-03-05 09:49:00,48.3,29.5,30.01,SE,127,0.0,1.0,48,0.00,,,0.00,Wunderground v.1.15,2013-03-05 14:49:00,
2013-03-05 09:50:00,48.3,30.0,30.00,SE,127,0.0,0.0,49,0.00,,,0.00,Wunderground v.1.15,2013-03-05 14:50:00,
2013-03-05 09:51:00,48.3,29.5,30.00,SE,127,0.0,0.0,48,0.00,,,0.00,Wunderground v.1.15,2013-03-05 14:51:00,
2013-03-05 09:52:00,48.3,30.0,30.00,SE,127,0.0,0.0,49,0.00,,,0.00,Wunderground v.1.15,2013-03-05 14:52:00,
2013-03-05 09:54:00,48.3,29.5,30.00,South,183,0.0,1.0,48,0.00,,,0.00,Wunderground v.1.15,2013-03-05 14:54:00,
2013-03-05 09:55:00,48.3,30.0,30.00,South,183,0.0,1.0,49,0.00,,,0.00,Wunderground v.1.15,2013-03-05 14:55:00,
2013-03-05 09:56:00,48.2,29.9,30.00,South,184,0.0,1.0,49,0.00,,,0.00,Wunderground v.1.15,2013-03-05 14:56:00,
2013-03-05 09:57:00,48.2,29.9,30.00,South,183,0.0,1.0,49,0.00,,,0.00,Wunderground v.1.15,2013-03-05 14:57:00,
2013-03-05 10:00:00,48.2,29.9,30.00,South,183,0.0,1.0,49,0.00,,,0.00,Wunderground v.1.15,2013-03-05 15:00:00,
2013-03-05 10:01:00,48.2,30.4,30.00,South,183,0.0,0.0,50,0.00,,,0.00,Wunderground v.1.15,2013-03-05 15:01:00,
2013-03-05 10:02:00,48.2,29.9,30.00,South,184,0.0,0.0,49,0.00,,,0.00,Wunderground v.1.15,2013-03-05 15:02:00,
2013-03-05 10:05:00,48.2,30.4,30.00,South,183,0.0,0.0,50,0.00,,,0.00,Wunderground v.1.15,2013-03-05 15:05:00,
2013-03-05 10:06:00,48.2,30.4,30.00,South,183,0.0,0.0,50,0.00,,,0.00,Wunderground v.1.15,2013-03-05 15:06:00,
2013-03-05 10:07:00,48.2,30.4,29.99,South,183,0.0,0.0,50,0.00,,,0.00,Wunderground v.1.15,2013-03-05 15:07:00,
2013-03-05 10:10:00,48.2,30.4,29.99,South,183,0.0,0.0,50,0.00,,,0.00,Wunderground v.1.15,2013-03-05 15:10:00,
2013-03-05 10:11:00,48.2,30.9,29.99,South,183,0.0,0.0,51,0.00,,,0.00,Wunderground v.1.15,2013-03-05 15:11:00,
2013-03-05 10:12:00,48.2,30.9,29.99,South,183,0.0,0.0,51,0.00,,,0.00,Wunderground v.1.15,2013-03-05 15:12:00,
2013-03-05 10:15:00,48.2,30.4,29.99,South,184,0.0,0.0,50,0.00,,,0.00,Wunderground v.1.15,2013-03-05 15:15:00,
2013-03-05 10:16:00,48.2,30.9,29.99,South,183,1.0,1.0,51,0.00,,,0.00,Wunderground v.1.15,2013-03-05 15:16:00,
2013-03-05 10:17:00,48.2,30.9,29.99,South,183,1.0,1.0,51,0.00,,,0.00,Wunderground v.1.15,2013-03-05 15:17:00,
2013-03-05 10:20:00,48.2,30.9,30.00,SSW,209,1.0,1.0,51,0.00,,,0.00,Wunderground v.1.15,2013-03-05 15:20:00,
2013-03-05 10:22:00,48.2,30.9,30.00,SSW,208,1.0,1.0,51,0.00,,,0.00,Wunderground v.1.15,2013-03-05 15:22:00,
2013-03-05 10:23:00,48.2,30.9,29.99,SSW,208,1.0,1.0,51,0.00,,,0.00,Wunderground v.1.15,2013-03-05 15:23:00,
2013-03-05 10:25:00,48.3,31.5,29.99,SSW,208,0.0,1.0,52,0.00,,,0.00,Wunderground v.1.15,2013-03-05 15:25:00,
2013-03-05 10:27:00,48.3,31.5,29.99,SSW,208,1.0,2.0,52,0.00,,,0.00,Wunderground v.1.15,2013-03-05 15:27:00,
2013-03-05 10:28:00,48.4,31.1,29.99,SSW,205,1.0,2.0,51,0.00,,,0.00,Wunderground v.1.15,2013-03-05 15:28:00,
2013-03-05 10:30:00,48.5,31.7,29.99,SSW,208,0.0,1.0,52,0.00,,,0.00,Wunderground v.1.15,2013-03-05 15:30:00,
2013-03-05 10:32:00,48.5,31.2,29.99,SSW,210,1.0,2.0,51,0.00,,,0.00,Wunderground v.1.15,2013-03-05 15:32:00,
2013-03-05 10:33:00,48.6,31.3,29.99,SSW,210,0.0,2.0,51,0.00,,,0.00,Wunderground v.1.15,2013-03-05 15:33:00,
2013-03-05 10:35:00,48.8,31.9,29.99,SSE,150,0.0,2.0,52,0.00,,,0.00,Wunderground v.1.15,2013-03-05 15:35:00,
2013-03-05 10:37:00,48.9,31.5,29.99,South,190,1.0,3.0,51,0.00,,,0.00,Wunderground v.1.15,2013-03-05 15:37:00,
2013-03-05 10:38:00,49.0,31.2,29.98,SW,217,1.0,3.0,50,0.00,,,0.00,Wunderground v.1.15,2013-03-05 15:38:00,
2013-03-05 10:40:00,49.1,31.2,29.98,South,191,1.0,1.0,50,0.00,,,0.00,Wunderground v.1.15,2013-03-05 15:40:00,
2013-03-05 10:42:00,49.2,31.3,29.99,South,184,2.0,2.0,50,0.00,,,0.00,Wunderground v.1.15,2013-03-05 15:42:00,
2013-03-05 10:43:00,49.3,30.9,29.99,SW,218,2.0,2.0,49,0.00,,,0.00,Wunderground v.1.15,2013-03-05 15:43:00,
2013-03-05 10:45:00,49.3,30.9,29.98,SE,129,1.0,4.0,49,0.00,,,0.00,Wunderground v.1.15,2013-03-05 15:45:00,
2013-03-05 10:47:00,49.4,31.0,29.98,SSW,203,0.0,4.0,49,0.00,,,0.00,Wunderground v.1.15,2013-03-05 15:47:00,
2013-03-05 10:48:00,49.4,30.5,29.98,SE,145,2.0,4.0,48,0.00,,,0.00,Wunderground v.1.15,2013-03-05 15:48:00,
2013-03-05 10:49:00,49.4,31.0,29.98,SSW,203,2.0,4.0,49,0.00,,,0.00,Wunderground v.1.15,2013-03-05 15:49:00,
2013-03-05 10:50:00,49.3,30.9,29.98,SSW,211,4.0,4.0,49,0.00,,,0.00,Wunderground v.1.15,2013-03-05 15:50:00,
2013-03-05 10:52:00,49.3,30.9,29.99,South,187,0.0,4.0,49,0.00,,,0.00,Wunderground v.1.15,2013-03-05 15:52:00,
2013-03-05 10:53:00,49.3,30.9,29.98,SSW,200,0.0,4.0,49,0.00,,,0.00,Wunderground v.1.15,2013-03-05 15:53:00,
2013-03-05 10:55:00,49.3,31.4,29.99,South,188,1.0,4.0,50,0.00,,,0.00,Wunderground v.1.15,2013-03-05 15:55:00,
2013-03-05 10:56:00,49.3,31.4,29.98,South,184,2.0,4.0,50,0.00,,,0.00,Wunderground v.1.15,2013-03-05 15:56:00,
2013-03-05 10:57:00,49.3,31.4,29.99,SSW,205,4.0,5.0,50,0.00,,,0.00,Wunderground v.1.15,2013-03-05 15:57:00,
2013-03-05 10:58:00,49.3,30.9,29.98,SSW,208,2.0,5.0,49,0.00,,,0.00,Wunderground v.1.15,2013-03-05 15:58:00,
2013-03-05 11:00:00,49.2,31.3,29.98,SSW,204,2.0,5.0,50,0.00,,,0.00,Wunderground v.1.15,2013-03-05 16:00:00,
2013-03-05 11:01:00,49.2,31.3,29.98,South,190,1.0,2.0,50,0.00,,,0.00,Wunderground v.1.15,2013-03-05 16:01:00,
2013-03-05 11:02:00,49.2,31.3,29.98,SSW,203,2.0,3.0,50,0.00,,,0.00,Wunderground v.1.15,2013-03-05 16:02:00,
2013-03-05 11:03:00,49.2,31.3,29.99,SSW,195,2.0,3.0,50,0.00,,,0.00,Wunderground v.1.15,2013-03-05 16:03:00,
2013-03-05 11:06:00,49.3,31.9,29.99,SW,221,2.0,3.0,51,0.00,,,0.00,Wunderground v.1.15,2013-03-05 16:06:00,
2013-03-05 11:07:00,49.3,31.4,29.99,WSW,241,3.0,3.0,50,0.00,,,0.00,Wunderground v.1.15,2013-03-05 16:07:00,
2013-03-05 11:08:00,49.3,31.9,29.98,SW,221,1.0,3.0,51,0.00,,,0.00,Wunderground v.1.15,2013-03-05 16:08:00,
2013-03-05 11:11:00,49.3,32.4,29.99,SSW,209,3.0,3.0,52,0.00,,,0.00,Wunderground v.1.15,2013-03-05 16:11:00,
2013-03-05 11:12:00,49.2,31.8,29.99,SW,214,0.0,3.0,51,0.00,,,0.00,Wunderground v.1.15,2013-03-05 16:12:00,
2013-03-05 11:14:00,49.2,32.3,29.99,SW,227,1.0,3.0,52,0.00,,,0.00,Wunderground v.1.15,2013-03-05 16:14:00,
2013-03-05 11:16:00,49.2,32.3,29.99,SSW,210,0.0,3.0,52,0.00,,,0.00,Wunderground v.1.15,2013-03-05 16:16:00,
2013-03-05 11:17:00,49.2,32.3,29.99,SSW,207,1.0,3.0,52,0.00,,,0.00,Wunderground v.1.15,2013-03-05 16:17:00,
2013-03-05 11:18:00,49.2,32.3,29.99,WSW,239,1.0,3.0,52,0.00,,,0.00,Wunderground v.1.15,2013-03-05 16:18:00,
2013-03-05 11:19:00,49.2,32.3,29.99,SSW,212,1.0,3.0,52,0.00,,,0.00,Wunderground v.1.15,2013-03-05 16:19:00,
2013-03-05 11:21:00,49.2,32.8,29.99,SSW,210,1.0,1.0,53,0.00,,,0.00,Wunderground v.1.15,2013-03-05 16:21:00,
2013-03-05 11:22:00,49.2,32.8,29.99,WSW,249,0.0,2.0,53,0.00,,,0.00,Wunderground v.1.15,2013-03-05 16:22:00,
2013-03-05 11:23:00,49.2,32.8,29.99,WSW,249,0.0,2.0,53,0.00,,,0.00,Wunderground v.1.15,2013-03-05 16:23:00,
2013-03-05 11:24:00,49.2,32.8,29.99,SW,232,1.0,2.0,53,0.00,,,0.00,Wunderground v.1.15,2013-03-05 16:24:00,
2013-03-05 11:26:00,49.2,33.3,29.99,SSE,162,0.0,2.0,54,0.00,,,0.00,Wunderground v.1.15,2013-03-05 16:26:00,
2013-03-05 11:27:00,49.2,33.3,29.99,SSE,162,0.0,2.0,54,0.00,,,0.00,Wunderground v.1.15,2013-03-05 16:27:00,
2013-03-05 11:28:00,49.1,34.5,29.99,SSW,210,0.0,2.0,57,0.00,,,0.00,Wunderground v.1.15,2013-03-05 16:28:00,
2013-03-05 11:29:00,49.1,34.5,29.99,SSW,209,0.0,2.0,57,0.00,,,0.00,Wunderground v.1.15,2013-03-05 16:29:00,
2013-03-05 11:31:00,49.0,34.9,29.99,SSW,210,0.0,0.0,58,0.00,,,0.00,Wunderground v.1.15,2013-03-05 16:31:00,
2013-03-05 11:32:00,48.9,35.2,29.99,SW,217,0.0,1.0,59,0.00,,,0.00,Wunderground v.1.15,2013-03-05 16:32:00,
2013-03-05 11:34:00,48.8,35.9,29.99,SSW,212,2.0,3.0,61,0.00,,,0.00,Wunderground v.1.15,2013-03-05 16:34:00,
2013-03-05 11:36:00,48.4,36.4,29.99,SW,218,2.0,3.0,63,0.00,,,0.00,Wunderground v.1.15,2013-03-05 16:36:00,
2013-03-05 11:37:00,48.1,36.1,29.99,SW,214,1.0,3.0,63,0.00,,,0.00,Wunderground v.1.15,2013-03-05 16:37:00,
2013-03-05 11:39:00,47.9,36.7,29.99,SSW,193,1.0,3.0,65,0.00,,,0.00,Wunderground v.1.15,2013-03-05 16:39:00,
2013-03-05 11:41:00,47.4,37.0,29.98,SSW,193,0.0,1.0,67,0.00,,,0.00,Wunderground v.1.15,2013-03-05 16:41:00,
2013-03-05 11:42:00,47.2,37.2,29.98,SSW,193,0.0,1.0,68,0.00,,,0.00,Wunderground v.1.15,2013-03-05 16:42:00,
2013-03-05 11:44:00,47.1,38.2,29.98,SSW,192,0.0,1.0,71,0.00,,,0.00,Wunderground v.1.15,2013-03-05 16:44:00,
2013-03-05 11:46:00,46.8,37.5,29.98,SSW,211,0.0,1.0,70,0.00,,,0.00,Wunderground v.1.15,2013-03-05 16:46:00,
2013-03-05 11:47:00,46.7,37.8,29.98,SSW,211,0.0,1.0,71,0.00,,,0.00,Wunderground v.1.15,2013-03-05 16:47:00,
2013-03-05 11:49:00,46.6,37.7,29.98,SW,235,0.0,2.0,71,0.00,,,0.00,Wunderground v.1.15,2013-03-05 16:49:00,
2013-03-05 11:51:00,46.3,38.1,29.98,SW,235,1.0,1.0,73,0.00,,,0.00,Wunderground v.1.15,2013-03-05 16:51:00,
2013-03-05 11:53:00,46.1,37.9,29.98,SSW,212,1.0,1.0,73,0.00,,,0.00,Wunderground v.1.15,2013-03-05 16:53:00,
2013-03-05 11:54:00,46.0,37.8,29.98,SW,224,1.0,1.0,73,0.00,,,0.00,Wunderground v.1.15,2013-03-05 16:54:00,
2013-03-05 11:55:00,46.0,38.2,29.98,SSW,205,0.0,1.0,74,0.00,,,0.00,Wunderground v.1.15,2013-03-05 16:55:00,
2013-03-05 11:56:00,45.8,38.0,29.98,SSW,207,0.0,2.0,74,0.00,,,0.00,Wunderground v.1.15,2013-03-05 16:56:00,
2013-03-05 11:58:00,45.6,37.8,29.98,SSW,193,1.0,2.0,74,0.00,,,0.00,Wunderground v.1.15,2013-03-05 16:58:00,
2013-03-05 11:59:00,45.5,38.0,29.98,SSW,193,1.0,2.0,75,0.00,,,0.00,Wunderground v.1.15,2013-03-05 16:59:00,
2013-03-05 12:00:00,45.4,38.3,29.98,SSW,193,2.0,2.0,76,0.00,,,0.00,Wunderground v.1.15,2013-03-05 17:00:00,
2013-03-05 12:01:00,45.2,37.7,29.98,South,175,2.0,5.0,75,0.00,,,0.00,Wunderground v.1.15,2013-03-05 17:01:00,
2013-03-05 12:03:00,45.1,38.0,29.98,SSW,203,2.0,5.0,76,0.00,,,0.00,Wunderground v.1.15,2013-03-05 17:03:00,
2013-03-05 12:04:00,45.0,37.9,29.98,SSW,200,2.0,5.0,76,0.00,,,0.00,Wunderground v.1.15,2013-03-05 17:04:00,
2013-03-05 12:05:00,44.9,37.8,29.98,SSW,198,2.0,5.0,76,0.00,,,0.00,Wunderground v.1.15,2013-03-05 17:05:00,
2013-03-05 12:07:00,44.7,38.3,29.97,SW,224,0.0,5.0,78,0.00,,,0.00,Wunderground v.1.15,2013-03-05 17:07:00,
2013-03-05 12:08:00,44.6,38.5,29.97,SSW,203,1.0,5.0,79,0.00,,,0.00,Wunderground v.1.15,2013-03-05 17:08:00,
2013-03-05 12:09:00,44.5,38.4,29.97,SW,214,1.0,5.0,79,0.00,,,0.00,Wunderground v.1.15,2013-03-05 17:09:00,
2013-03-05 12:10:00,44.4,38.3,29.97,SSW,198,1.0,2.0,79,0.00,,,0.01,Wunderground v.1.15,2013-03-05 17:10:00,
2013-03-05 12:12:00,44.3,38.2,29.97,SSW,201,1.0,2.0,79,0.00,,,0.01,Wunderground v.1.15,2013-03-05 17:12:00,
2013-03-05 12:14:00,44.1,38.6,29.96,SSW,201,0.0,2.0,81,0.00,,,0.01,Wunderground v.1.15,2013-03-05 17:14:00,
2013-03-05 12:16:00,43.9,38.8,29.96,SSW,200,0.0,2.0,82,0.00,,,0.01,Wunderground v.1.15,2013-03-05 17:16:00,
2013-03-05 12:17:00,43.9,38.8,29.96,SSW,200,0.0,2.0,82,0.00,,,0.01,Wunderground v.1.15,2013-03-05 17:17:00,
2013-03-05 12:19:00,43.8,39.0,29.96,SSW,200,0.0,2.0,83,0.00,,,0.01,Wunderground v.1.15,2013-03-05 17:19:00,
2013-03-05 12:21:00,43.8,39.3,29.96,SSW,200,0.0,0.0,84,0.00,,,0.01,Wunderground v.1.15,2013-03-05 17:21:00,
2013-03-05 12:22:00,43.8,39.3,29.96,SSW,200,0.0,0.0,84,0.00,,,0.01,Wunderground v.1.15,2013-03-05 17:22:00,
2013-03-05 12:24:00,43.7,39.2,29.96,SSW,201,0.0,0.0,84,0.00,,,0.01,Wunderground v.1.15,2013-03-05 17:24:00,
2013-03-05 12:26:00,43.7,39.5,29.96,SSW,201,0.0,0.0,85,0.00,,,0.01,Wunderground v.1.15,2013-03-05 17:26:00,
2013-03-05 12:28:00,43.7,39.8,29.96,SSW,200,0.0,0.0,86,0.00,,,0.01,Wunderground v.1.15,2013-03-05 17:28:00,
2013-03-05 12:29:00,43.7,39.8,29.96,SSW,201,0.0,0.0,86,0.00,,,0.01,Wunderground v.1.15,2013-03-05 17:29:00,
2013-03-05 12:30:00,43.7,39.8,29.96,SSW,201,0.0,0.0,86,0.00,,,0.01,Wunderground v.1.15,2013-03-05 17:30:00,
2013-03-05 12:32:00,43.7,39.8,29.95,SSW,200,0.0,0.0,86,0.00,,,0.01,Wunderground v.1.15,2013-03-05 17:32:00,
2013-03-05 12:33:00,43.7,39.8,29.95,SSW,201,0.0,0.0,86,0.00,,,0.01,Wunderground v.1.15,2013-03-05 17:33:00,
2013-03-05 12:35:00,43.7,39.8,29.95,SSW,201,0.0,0.0,86,0.00,,,0.01,Wunderground v.1.15,2013-03-05 17:35:00,
2013-03-05 12:37:00,43.7,40.1,29.95,SSW,201,0.0,1.0,87,0.00,,,0.01,Wunderground v.1.15,2013-03-05 17:37:00,
2013-03-05 12:39:00,43.7,40.1,29.95,SSW,201,0.0,1.0,87,0.00,,,0.01,Wunderground v.1.15,2013-03-05 17:39:00,
2013-03-05 12:40:00,43.7,40.1,29.95,SSW,201,0.0,1.0,87,0.00,,,0.01,Wunderground v.1.15,2013-03-05 17:40:00,
2013-03-05 12:42:00,43.6,40.0,29.95,SSW,203,0.0,1.0,87,0.00,,,0.01,Wunderground v.1.15,2013-03-05 17:42:00,
2013-03-05 12:44:00,43.5,39.9,29.95,SSW,203,1.0,1.0,87,0.00,,,0.01,Wunderground v.1.15,2013-03-05 17:44:00,
2013-03-05 12:45:00,43.5,39.9,29.95,SSW,203,0.0,1.0,87,0.00,,,0.01,Wunderground v.1.15,2013-03-05 17:45:00,
2013-03-05 12:48:00,43.5,40.2,29.95,SSW,203,0.0,1.0,88,0.00,,,0.02,Wunderground v.1.15,2013-03-05 17:48:00,
2013-03-05 12:49:00,43.5,40.5,29.95,SSW,203,0.0,1.0,89,0.00,,,0.02,Wunderground v.1.15,2013-03-05 17:49:00,
2013-03-05 12:50:00,43.5,40.5,29.94,SSW,203,0.0,1.0,89,0.00,,,0.02,Wunderground v.1.15,2013-03-05 17:50:00,
2013-03-05 12:53:00,43.4,40.1,29.95,SSW,198,1.0,2.0,88,0.00,,,0.02,Wunderground v.1.15,2013-03-05 17:53:00,
2013-03-05 12:55:00,43.3,40.3,29.94,SSW,207,1.0,2.0,89,0.00,,,0.02,Wunderground v.1.15,2013-03-05 17:55:00,
2013-03-05 12:58:00,43.3,40.6,29.94,SSW,203,1.0,2.0,90,0.06,,,0.03,Wunderground v.1.15,2013-03-05 17:58:00,
2013-03-05 13:00:00,43.3,40.6,29.94,SSW,207,1.0,1.0,90,0.06,,,0.03,Wunderground v.1.15,2013-03-05 18:00:00,
2013-03-05 13:01:00,43.2,40.5,29.94,SSW,207,1.0,1.0,90,0.06,,,0.03,Wunderground v.1.15,2013-03-05 18:01:00,
2013-03-05 13:03:00,43.2,40.8,29.94,SW,214,1.0,1.0,91,0.06,,,0.03,Wunderground v.1.15,2013-03-05 18:03:00,
2013-03-05 13:05:00,43.2,40.8,29.94,SSW,192,1.0,2.0,91,0.06,,,0.03,Wunderground v.1.15,2013-03-05 18:05:00,
2013-03-05 13:06:00,43.2,40.8,29.94,SW,218,2.0,2.0,91,0.06,,,0.03,Wunderground v.1.15,2013-03-05 18:06:00,
2013-03-05 13:08:00,43.2,40.8,29.94,SW,217,0.0,2.0,91,0.05,,,0.03,Wunderground v.1.15,2013-03-05 18:08:00,
2013-03-05 13:10:00,43.2,41.0,29.94,SE,136,1.0,1.0,92,0.04,,,0.03,Wunderground v.1.15,2013-03-05 18:10:00,
2013-03-05 13:11:00,43.2,41.0,29.93,SSE,150,1.0,1.0,92,0.04,,,0.03,Wunderground v.1.15,2013-03-05 18:11:00,
2013-03-05 13:14:00,43.3,41.1,29.93,SSW,207,2.0,2.0,92,0.04,,,0.04,Wunderground v.1.15,2013-03-05 18:14:00,
2013-03-05 13:15:00,43.2,41.0,29.93,SE,129,1.0,2.0,92,0.04,,,0.04,Wunderground v.1.15,2013-03-05 18:15:00,
2013-03-05 13:16:00,43.2,41.0,29.93,South,191,1.0,3.0,92,0.04,,,0.04,Wunderground v.1.15,2013-03-05 18:16:00,
2013-03-05 13:19:00,43.2,41.0,29.93,SE,142,0.0,3.0,92,0.10,,,0.04,Wunderground v.1.15,2013-03-05 18:19:00,
2013-03-05 13:20:00,43.1,40.9,29.93,SSE,153,0.0,1.0,92,0.10,,,0.05,Wunderground v.1.15,2013-03-05 18:20:00,
2013-03-05 13:21:00,43.1,40.9,29.93,SSW,203,2.0,2.0,92,0.10,,,0.05,Wunderground v.1.15,2013-03-05 18:21:00,
2013-03-05 13:24:00,43.1,40.9,29.92,South,181,1.0,2.0,92,0.10,,,0.05,Wunderground v.1.15,2013-03-05 18:24:00,
2013-03-05 13:25:00,43.0,40.8,29.92,SE,131,1.0,2.0,92,0.09,,,0.05,Wunderground v.1.15,2013-03-05 18:25:00,
2013-03-05 13:26:00,43.0,40.8,29.92,SE,136,1.0,2.0,92,0.09,,,0.05,Wunderground v.1.15,2013-03-05 18:26:00,
2013-03-05 13:27:00,43.0,40.8,29.92,SE,142,2.0,2.0,92,0.08,,,0.05,Wunderground v.1.15,2013-03-05 18:27:00,
2013-03-05 13:29:00,43.0,41.1,29.92,SE,138,1.0,2.0,93,0.08,,,0.06,Wunderground v.1.15,2013-03-05 18:29:00,
2013-03-05 13:30:00,43.1,41.2,29.92,ESE,113,2.0,2.0,93,0.08,,,0.06,Wunderground v.1.15,2013-03-05 18:30:00,
2013-03-05 13:31:00,43.1,41.2,29.92,SE,124,1.0,2.0,93,0.08,,,0.06,Wunderground v.1.15,2013-03-05 18:31:00,
2013-03-05 13:32:00,43.1,41.2,29.92,SE,134,1.0,2.0,93,0.08,,,0.06,Wunderground v.1.15,2013-03-05 18:32:00,
2013-03-05 13:34:00,43.1,41.2,29.92,SE,134,0.0,2.0,93,0.10,,,0.07,Wunderground v.1.15,2013-03-05 18:34:00,
2013-03-05 13:35:00,43.1,41.2,29.92,SSE,148,1.0,2.0,93,0.10,,,0.07,Wunderground v.1.15,2013-03-05 18:35:00,
2013-03-05 13:36:00,43.1,41.2,29.92,SSE,152,1.0,2.0,93,0.10,,,0.07,Wunderground v.1.15,2013-03-05 18:36:00,
2013-03-05 13:37:00,43.1,41.2,29.92,SSE,153,0.0,2.0,93,0.10,,,0.07,Wunderground v.1.15,2013-03-05 18:37:00,
2013-03-05 13:39:00,43.1,41.2,29.91,SE,141,1.0,2.0,93,0.09,,,0.07,Wunderground v.1.15,2013-03-05 18:39:00,
2013-03-05 13:40:00,43.1,41.2,29.91,SSE,150,0.0,1.0,93,0.08,,,0.07,Wunderground v.1.15,2013-03-05 18:40:00,
2013-03-05 13:41:00,43.1,41.2,29.91,South,169,1.0,2.0,93,0.07,,,0.08,Wunderground v.1.15,2013-03-05 18:41:00,
2013-03-05 13:42:00,43.1,41.2,29.91,South,169,1.0,2.0,93,0.07,,,0.08,Wunderground v.1.15,2013-03-05 18:42:00,
2013-03-05 13:44:00,43.1,41.2,29.91,SSE,147,0.0,2.0,93,0.07,,,0.08,Wunderground v.1.15,2013-03-05 18:44:00,
2013-03-05 13:45:00,43.2,41.3,29.90,SE,134,1.0,3.0,93,0.07,,,0.08,Wunderground v.1.15,2013-03-05 18:45:00,
2013-03-05 13:46:00,43.2,41.6,29.90,SSW,207,1.0,3.0,94,0.07,,,0.08,Wunderground v.1.15,2013-03-05 18:46:00,
2013-03-05 13:47:00,43.2,41.6,29.90,SSW,205,0.0,3.0,94,0.07,,,0.08,Wunderground v.1.15,2013-03-05 18:47:00,
2013-03-05 13:50:00,43.2,41.6,29.90,South,191,1.0,1.0,94,0.07,,,0.08,Wunderground v.1.15,2013-03-05 18:50:00,
2013-03-05 13:51:00,43.2,41.6,29.90,South,191,0.0,1.0,94,0.06,,,0.08,Wunderground v.1.15,2013-03-05 18:51:00,
2013-03-05 13:52:00,43.2,41.6,29.90,SSW,198,0.0,1.0,94,0.06,,,0.08,Wunderground v.1.15,2013-03-05 18:52:00,
2013-03-05 13:55:00,43.3,41.7,29.90,SE,131,1.0,1.0,94,0.04,,,0.08,Wunderground v.1.15,2013-03-05 18:55:00,
2013-03-05 13:56:00,43.3,41.7,29.90,SSE,162,1.0,1.0,94,0.04,,,0.08,Wunderground v.1.15,2013-03-05 18:56:00,
2013-03-05 13:57:00,43.3,41.7,29.90,South,170,1.0,2.0,94,0.04,,,0.08,Wunderground v.1.15,2013-03-05 18:57:00,
2013-03-05 14:00:00,43.4,41.8,29.90,SSE,165,0.0,1.0,94,0.00,,,0.08,Wunderground v.1.15,2013-03-05 19:00:00,
2013-03-05 14:01:00,43.4,41.8,29.90,SSE,165,0.0,1.0,94,0.00,,,0.08,Wunderground v.1.15,2013-03-05 19:01:00,
2013-03-05 14:02:00,43.4,41.8,29.90,South,191,1.0,2.0,94,0.00,,,0.08,Wunderground v.1.15,2013-03-05 19:02:00,
2013-03-05 14:05:00,43.5,41.9,29.89,South,176,0.0,3.0,94,0.00,,,0.08,Wunderground v.1.15,2013-03-05 19:05:00,
2013-03-05 14:06:00,43.5,41.9,29.89,South,175,1.0,3.0,94,0.00,,,0.08,Wunderground v.1.15,2013-03-05 19:06:00,
2013-03-05 14:07:00,43.5,41.9,29.89,South,181,1.0,3.0,94,0.00,,,0.08,Wunderground v.1.15,2013-03-05 19:07:00,
2013-03-05 14:10:00,43.7,42.1,29.89,SSW,207,1.0,1.0,94,0.00,,,0.08,Wunderground v.1.15,2013-03-05 19:10:00,
2013-03-05 14:11:00,43.7,42.1,29.89,SSE,153,1.0,1.0,94,0.00,,,0.08,Wunderground v.1.15,2013-03-05 19:11:00,
2013-03-05 14:12:00,43.7,42.1,29.89,SSW,197,1.0,2.0,94,0.00,,,0.08,Wunderground v.1.15,2013-03-05 19:12:00,
2013-03-05 14:15:00,43.7,42.1,29.89,SSW,203,1.0,2.0,94,0.00,,,0.08,Wunderground v.1.15,2013-03-05 19:15:00,
2013-03-05 14:16:00,43.7,42.1,29.89,SSW,209,1.0,2.0,94,0.00,,,0.08,Wunderground v.1.15,2013-03-05 19:16:00,
2013-03-05 14:17:00,43.7,42.1,29.89,SSW,209,0.0,2.0,94,0.00,,,0.08,Wunderground v.1.15,2013-03-05 19:17:00,
2013-03-05 14:18:00,43.8,42.2,29.89,SSE,165,2.0,2.0,94,0.00,,,0.08,Wunderground v.1.15,2013-03-05 19:18:00,
2013-03-05 14:21:00,43.8,42.2,29.89,South,191,1.0,1.0,94,0.00,,,0.08,Wunderground v.1.15,2013-03-05 19:21:00,
2013-03-05 14:22:00,43.8,42.2,29.89,SW,231,1.0,3.0,94,0.00,,,0.08,Wunderground v.1.15,2013-03-05 19:22:00,
2013-03-05 14:23:00,43.8,42.2,29.89,SW,215,3.0,3.0,94,0.00,,,0.08,Wunderground v.1.15,2013-03-05 19:23:00,
2013-03-05 14:26:00,43.8,42.2,29.89,SSW,200,1.0,4.0,94,0.00,,,0.09,Wunderground v.1.15,2013-03-05 19:26:00,
2013-03-05 14:27:00,43.8,42.2,29.89,SSW,212,0.0,4.0,94,0.00,,,0.09,Wunderground v.1.15,2013-03-05 19:27:00,
2013-03-05 14:28:00,43.8,42.2,29.88,SE,142,0.0,4.0,94,0.00,,,0.09,Wunderground v.1.15,2013-03-05 19:28:00,
2013-03-05 14:31:00,43.8,42.2,29.88,ESE,120,0.0,1.0,94,0.00,,,0.09,Wunderground v.1.15,2013-03-05 19:31:00,
2013-03-05 14:32:00,43.8,42.2,29.88,SSW,203,0.0,2.0,94,0.00,,,0.09,Wunderground v.1.15,2013-03-05 19:32:00,
2013-03-05 14:34:00,43.8,42.2,29.88,SSW,203,0.0,2.0,94,0.00,,,0.09,Wunderground v.1.15,2013-03-05 19:34:00,
2013-03-05 14:36:00,43.9,42.3,29.88,SSW,205,1.0,2.0,94,0.00,,,0.09,Wunderground v.1.15,2013-03-05 19:36:00,
2013-03-05 14:37:00,43.8,42.2,29.88,SSW,208,2.0,2.0,94,0.00,,,0.09,Wunderground v.1.15,2013-03-05 19:37:00,
2013-03-05 14:39:00,43.9,42.3,29.88,South,186,0.0,2.0,94,0.00,,,0.09,Wunderground v.1.15,2013-03-05 19:39:00,
2013-03-05 14:42:00,43.9,42.3,29.88,SW,217,1.0,1.0,94,0.00,,,0.09,Wunderground v.1.15,2013-03-05 19:42:00,
2013-03-05 14:44:00,43.9,42.3,29.88,SSW,207,1.0,2.0,94,0.00,,,0.09,Wunderground v.1.15,2013-03-05 19:44:00,
2013-03-05 14:47:00,43.9,42.3,29.88,SSW,205,1.0,2.0,94,0.00,,,0.09,Wunderground v.1.15,2013-03-05 19:47:00,
2013-03-05 14:49:00,44.0,42.4,29.88,SSE,162,0.0,2.0,94,0.00,,,0.09,Wunderground v.1.15,2013-03-05 19:49:00,
2013-03-05 14:52:00,44.0,42.7,29.87,SSE,162,0.0,1.0,95,0.00,,,0.09,Wunderground v.1.15,2013-03-05 19:52:00,
2013-03-05 14:53:00,44.0,42.7,29.87,SSE,162,0.0,1.0,95,0.00,,,0.09,Wunderground v.1.15,2013-03-05 19:53:00,
2013-03-05 14:54:00,44.0,42.7,29.87,SSE,162,2.0,2.0,95,0.00,,,0.09,Wunderground v.1.15,2013-03-05 19:54:00,
2013-03-05 14:57:00,44.1,42.8,29.87,SE,134,1.0,2.0,95,0.00,,,0.09,Wunderground v.1.15,2013-03-05 19:57:00,
2013-03-05 14:58:00,44.1,42.8,29.86,SE,134,0.0,2.0,95,0.00,,,0.09,Wunderground v.1.15,2013-03-05 19:58:00,
2013-03-05 15:00:00,44.1,42.8,29.86,SE,139,1.0,2.0,95,0.00,,,0.09,Wunderground v.1.15,2013-03-05 20:00:00,
2013-03-05 15:02:00,44.2,42.9,29.86,SE,125,0.0,2.0,95,0.00,,,0.09,Wunderground v.1.15,2013-03-05 20:02:00,
2013-03-05 15:03:00,44.2,42.9,29.86,SE,125,0.0,2.0,95,0.00,,,0.09,Wunderground v.1.15,2013-03-05 20:03:00,
2013-03-05 15:05:00,44.2,42.9,29.86,SE,125,0.0,2.0,95,0.00,,,0.09,Wunderground v.1.15,2013-03-05 20:05:00,
2013-03-05 15:07:00,44.3,43.0,29.86,SSE,162,1.0,2.0,95,0.00,,,0.09,Wunderground v.1.15,2013-03-05 20:07:00,
2013-03-05 15:08:00,44.3,43.0,29.86,SSE,164,0.0,2.0,95,0.00,,,0.09,Wunderground v.1.15,2013-03-05 20:08:00,
2013-03-05 15:09:00,44.3,43.0,29.86,SSE,163,0.0,2.0,95,0.00,,,0.09,Wunderground v.1.15,2013-03-05 20:09:00,
2013-03-05 15:10:00,44.3,43.0,29.86,SSE,164,0.0,2.0,95,0.00,,,0.09,Wunderground v.1.15,2013-03-05 20:10:00,
2013-03-05 15:12:00,44.4,43.1,29.86,SE,124,0.0,1.0,95,0.00,,,0.09,Wunderground v.1.15,2013-03-05 20:12:00,
2013-03-05 15:14:00,44.3,43.0,29.86,SE,124,0.0,1.0,95,0.00,,,0.09,Wunderground v.1.15,2013-03-05 20:14:00,
2013-03-05 15:15:00,44.3,43.0,29.86,SE,124,0.0,1.0,95,0.00,,,0.09,Wunderground v.1.15,2013-03-05 20:15:00,
2013-03-05 15:17:00,44.4,43.1,29.86,SSE,167,0.0,1.0,95,0.00,,,0.09,Wunderground v.1.15,2013-03-05 20:17:00,
2013-03-05 15:19:00,44.4,43.1,29.86,SSE,167,0.0,1.0,95,0.00,,,0.09,Wunderground v.1.15,2013-03-05 20:19:00,
2013-03-05 15:20:00,44.5,43.2,29.86,SSE,167,0.0,0.0,95,0.00,,,0.09,Wunderground v.1.15,2013-03-05 20:20:00,
2013-03-05 15:23:00,44.4,43.1,29.86,ESE,117,1.0,1.0,95,0.00,,,0.09,Wunderground v.1.15,2013-03-05 20:23:00,
2013-03-05 15:24:00,44.5,43.2,29.86,SE,133,0.0,1.0,95,0.00,,,0.09,Wunderground v.1.15,2013-03-05 20:24:00,
2013-03-05 15:25:00,44.5,43.2,29.86,SE,133,0.0,1.0,95,0.00,,,0.09,Wunderground v.1.15,2013-03-05 20:25:00,
2013-03-05 15:28:00,44.5,43.2,29.86,SE,134,0.0,1.0,95,0.00,,,0.09,Wunderground v.1.15,2013-03-05 20:28:00,
2013-03-05 15:29:00,44.5,43.2,29.86,SE,134,0.0,1.0,95,0.00,,,0.09,Wunderground v.1.15,2013-03-05 20:29:00,
2013-03-05 15:30:00,44.5,43.2,29.86,SE,134,0.0,0.0,95,0.00,,,0.09,Wunderground v.1.15,2013-03-05 20:30:00,
2013-03-05 15:33:00,44.6,43.3,29.86,SE,134,0.0,1.0,95,0.00,,,0.09,Wunderground v.1.15,2013-03-05 20:33:00,
2013-03-05 15:34:00,44.6,43.3,29.86,SE,134,0.0,1.0,95,0.00,,,0.09,Wunderground v.1.15,2013-03-05 20:34:00,
2013-03-05 15:35:00,44.7,43.4,29.86,SE,134,0.0,1.0,95,0.00,,,0.09,Wunderground v.1.15,2013-03-05 20:35:00,
2013-03-05 15:38:00,44.7,43.4,29.86,SE,134,0.0,1.0,95,0.00,,,0.09,Wunderground v.1.15,2013-03-05 20:38:00,
2013-03-05 15:39:00,44.7,43.4,29.86,SE,134,0.0,1.0,95,0.00,,,0.09,Wunderground v.1.15,2013-03-05 20:39:00,
2013-03-05 15:40:00,44.7,43.4,29.85,SE,134,0.0,0.0,95,0.00,,,0.09,Wunderground v.1.15,2013-03-05 20:40:00,
2013-03-05 15:43:00,44.8,43.5,29.85,SE,136,0.0,0.0,95,0.00,,,0.09,Wunderground v.1.15,2013-03-05 20:43:00,
2013-03-05 15:44:00,44.8,43.5,29.85,SE,136,0.0,0.0,95,0.00,,,0.09,Wunderground v.1.15,2013-03-05 20:44:00,
2013-03-05 15:45:00,44.8,43.5,29.85,SE,136,0.0,0.0,95,0.00,,,0.09,Wunderground v.1.15,2013-03-05 20:45:00,
2013-03-05 15:48:00,44.8,43.5,29.85,SE,136,0.0,1.0,95,0.00,,,0.09,Wunderground v.1.15,2013-03-05 20:48:00,
2013-03-05 15:49:00,44.8,43.5,29.85,SE,136,0.0,1.0,95,0.00,,,0.09,Wunderground v.1.15,2013-03-05 20:49:00,
2013-03-05 15:50:00,44.8,43.5,29.85,SE,134,0.0,0.0,95,0.00,,,0.09,Wunderground v.1.15,2013-03-05 20:50:00,
2013-03-05 15:53:00,44.9,43.6,29.84,SE,134,0.0,1.0,95,0.00,,,0.09,Wunderground v.1.15,2013-03-05 20:53:00,
2013-03-05 15:55:00,44.9,43.6,29.84,SSE,162,0.0,1.0,95,0.00,,,0.09,Wunderground v.1.15,2013-03-05 20:55:00,
2013-03-05 15:58:00,44.9,43.6,29.84,SSE,162,0.0,1.0,95,0.00,,,0.09,Wunderground v.1.15,2013-03-05 20:58:00,
2013-03-05 16:00:00,44.9,43.6,29.83,SSE,162,0.0,0.0,95,0.00,,,0.09,Wunderground v.1.15,2013-03-05 21:00:00,
2013-03-05 16:01:00,44.9,43.6,29.83,SSE,162,0.0,1.0,95,0.00,,,0.09,Wunderground v.1.15,2013-03-05 21:01:00,
2013-03-05 16:03:00,45.0,43.7,29.83,SSE,162,0.0,1.0,95,0.00,,,0.09,Wunderground v.1.15,2013-03-05 21:03:00,
2013-03-05 16:05:00,45.1,43.8,29.83,SSE,162,1.0,1.0,95,0.00,,,0.09,Wunderground v.1.15,2013-03-05 21:05:00,
2013-03-05 16:06:00,45.1,43.8,29.83,SSE,162,0.0,1.0,95,0.00,,,0.09,Wunderground v.1.15,2013-03-05 21:06:00,
2013-03-05 16:07:00,45.1,43.8,29.83,SSE,162,0.0,1.0,95,0.00,,,0.09,Wunderground v.1.15,2013-03-05 21:07:00,
2013-03-05 16:09:00,45.2,43.9,29.83,SSE,162,0.0,1.0,95,0.00,,,0.09,Wunderground v.1.15,2013-03-05 21:09:00,
2013-03-05 16:10:00,45.2,43.9,29.83,SSE,162,0.0,0.0,95,0.00,,,0.09,Wunderground v.1.15,2013-03-05 21:10:00,
2013-03-05 16:11:00,45.2,43.9,29.83,SSE,162,0.0,0.0,95,0.00,,,0.09,Wunderground v.1.15,2013-03-05 21:11:00,
2013-03-05 16:12:00,45.3,44.0,29.83,SSE,162,0.0,0.0,95,0.00,,,0.09,Wunderground v.1.15,2013-03-05 21:12:00,
2013-03-05 16:14:00,45.3,44.0,29.83,SSE,162,0.0,0.0,95,0.00,,,0.09,Wunderground v.1.15,2013-03-05 21:14:00,
2013-03-05 16:15:00,45.3,44.0,29.83,SSE,162,0.0,0.0,95,0.00,,,0.09,Wunderground v.1.15,2013-03-05 21:15:00,
2013-03-05 16:16:00,45.3,44.0,29.83,SSE,162,0.0,0.0,95,0.00,,,0.09,Wunderground v.1.15,2013-03-05 21:16:00,
2013-03-05 16:17:00,45.3,44.0,29.83,SSE,162,0.0,0.0,95,0.00,,,0.09,Wunderground v.1.15,2013-03-05 21:17:00,
2013-03-05 16:20:00,45.4,44.1,29.83,SSE,162,0.0,0.0,95,0.00,,,0.09,Wunderground v.1.15,2013-03-05 21:20:00,
2013-03-05 16:21:00,45.4,44.1,29.83,SSE,162,0.0,0.0,95,0.00,,,0.09,Wunderground v.1.15,2013-03-05 21:21:00,
2013-03-05 16:22:00,45.4,44.1,29.83,SSE,162,0.0,0.0,95,0.00,,,0.09,Wunderground v.1.15,2013-03-05 21:22:00,
2013-03-05 16:25:00,45.4,44.1,29.83,SSE,162,0.0,0.0,95,0.00,,,0.09,Wunderground v.1.15,2013-03-05 21:25:00,
2013-03-05 16:26:00,45.4,44.1,29.83,SSE,162,0.0,0.0,95,0.00,,,0.09,Wunderground v.1.15,2013-03-05 21:26:00,
2013-03-05 16:27:00,45.4,44.1,29.83,SSE,162,0.0,0.0,95,0.00,,,0.09,Wunderground v.1.15,2013-03-05 21:27:00,
2013-03-05 16:30:00,45.5,44.2,29.83,SSE,162,0.0,0.0,95,0.00,,,0.09,Wunderground v.1.15,2013-03-05 21:30:00,
2013-03-05 16:32:00,45.4,44.1,29.83,SSE,162,0.0,0.0,95,0.00,,,0.09,Wunderground v.1.15,2013-03-05 21:32:00,
2013-03-05 16:35:00,45.4,44.1,29.83,SSE,162,0.0,0.0,95,0.00,,,0.09,Wunderground v.1.15,2013-03-05 21:35:00,
2013-03-05 16:37:00,45.5,44.2,29.83,SSE,162,0.0,0.0,95,0.00,,,0.09,Wunderground v.1.15,2013-03-05 21:37:00,
2013-03-05 16:40:00,45.5,44.2,29.83,SSE,162,0.0,0.0,95,0.00,,,0.09,Wunderground v.1.15,2013-03-05 21:40:00,
2013-03-05 16:41:00,45.5,44.2,29.83,SSE,162,0.0,0.0,95,0.00,,,0.09,Wunderground v.1.15,2013-03-05 21:41:00,
2013-03-05 16:42:00,45.5,44.2,29.83,SSE,162,0.0,0.0,95,0.00,,,0.09,Wunderground v.1.15,2013-03-05 21:42:00,
2013-03-05 16:45:00,45.5,44.2,29.83,SSE,162,0.0,0.0,95,0.00,,,0.09,Wunderground v.1.15,2013-03-05 21:45:00,
2013-03-05 16:46:00,45.6,44.3,29.83,SSE,162,0.0,0.0,95,0.00,,,0.09,Wunderground v.1.15,2013-03-05 21:46:00,
2013-03-05 16:47:00,45.6,44.3,29.83,SSE,162,0.0,0.0,95,0.00,,,0.09,Wunderground v.1.15,2013-03-05 21:47:00,
2013-03-05 16:48:00,45.6,44.3,29.83,SSE,162,0.0,0.0,95,0.00,,,0.09,Wunderground v.1.15,2013-03-05 21:48:00,
2013-03-05 16:50:00,45.6,44.3,29.83,SSE,162,0.0,0.0,95,0.00,,,0.09,Wunderground v.1.15,2013-03-05 21:50:00,
2013-03-05 16:51:00,45.7,44.4,29.83,SSE,162,0.0,0.0,95,0.00,,,0.09,Wunderground v.1.15,2013-03-05 21:51:00,
2013-03-05 16:52:00,45.7,44.4,29.83,SSE,162,0.0,0.0,95,0.00,,,0.09,Wunderground v.1.15,2013-03-05 21:52:00,
2013-03-05 16:53:00,45.7,44.4,29.83,SSE,162,0.0,0.0,95,0.00,,,0.09,Wunderground v.1.15,2013-03-05 21:53:00,
2013-03-05 16:55:00,45.7,44.4,29.83,SSE,162,0.0,0.0,95,0.00,,,0.09,Wunderground v.1.15,2013-03-05 21:55:00,
2013-03-05 16:56:00,45.7,44.4,29.83,SSE,162,0.0,0.0,95,0.00,,,0.09,Wunderground v.1.15,2013-03-05 21:56:00,
2013-03-05 16:57:00,45.7,44.4,29.83,SSE,162,0.0,0.0,95,0.00,,,0.09,Wunderground v.1.15,2013-03-05 21:57:00,
2013-03-05 16:58:00,45.7,44.4,29.83,SSE,162,0.0,0.0,95,0.00,,,0.09,Wunderground v.1.15,2013-03-05 21:58:00,
2013-03-05 17:01:00,45.7,44.4,29.83,SSE,162,0.0,0.0,95,0.00,,,0.09,Wunderground v.1.15,2013-03-05 22:01:00,
2013-03-05 17:02:00,45.7,44.4,29.83,SSE,162,0.0,0.0,95,0.00,,,0.09,Wunderground v.1.15,2013-03-05 22:02:00,
2013-03-05 17:03:00,45.7,44.4,29.83,SSE,162,0.0,0.0,95,0.00,,,0.09,Wunderground v.1.15,2013-03-05 22:03:00,
2013-03-05 17:06:00,45.7,44.4,29.82,SSE,162,0.0,0.0,95,0.00,,,0.09,Wunderground v.1.15,2013-03-05 22:06:00,
2013-03-05 17:07:00,45.7,44.4,29.83,SSE,162,0.0,0.0,95,0.00,,,0.09,Wunderground v.1.15,2013-03-05 22:07:00,
2013-03-05 17:08:00,45.6,44.3,29.82,SSE,162,0.0,0.0,95,0.00,,,0.09,Wunderground v.1.15,2013-03-05 22:08:00,
2013-03-05 17:12:00,45.6,44.3,29.82,SSE,162,0.0,0.0,95,0.00,,,0.09,Wunderground v.1.15,2013-03-05 22:12:00,
2013-03-05 17:13:00,45.6,44.3,29.82,SSE,162,0.0,0.0,95,0.00,,,0.10,Wunderground v.1.15,2013-03-05 22:13:00,
2013-03-05 17:17:00,45.6,44.3,29.81,SSE,162,0.0,0.0,95,0.00,,,0.10,Wunderground v.1.15,2013-03-05 22:17:00,
2013-03-05 17:19:00,45.6,44.3,29.81,SSE,162,0.0,0.0,95,0.00,,,0.10,Wunderground v.1.15,2013-03-05 22:19:00,
2013-03-05 17:22:00,45.6,44.3,29.81,SSE,162,0.0,0.0,95,0.00,,,0.10,Wunderground v.1.15,2013-03-05 22:22:00,
2013-03-05 17:24:00,45.6,44.3,29.81,SSE,162,0.0,0.0,95,0.00,,,0.10,Wunderground v.1.15,2013-03-05 22:24:00,
2013-03-05 17:27:00,45.6,44.3,29.81,SSE,162,1.0,1.0,95,0.00,,,0.10,Wunderground v.1.15,2013-03-05 22:27:00,
2013-03-05 17:28:00,45.6,44.3,29.81,SSE,162,0.0,1.0,95,0.00,,,0.10,Wunderground v.1.15,2013-03-05 22:28:00,
2013-03-05 17:29:00,45.6,44.3,29.81,SSE,162,0.0,1.0,95,0.00,,,0.10,Wunderground v.1.15,2013-03-05 22:29:00,
2013-03-05 17:32:00,45.6,44.3,29.81,SSE,162,0.0,0.0,95,0.00,,,0.10,Wunderground v.1.15,2013-03-05 22:32:00,
2013-03-05 17:33:00,45.6,44.3,29.80,SSE,162,0.0,0.0,95,0.00,,,0.10,Wunderground v.1.15,2013-03-05 22:33:00,
2013-03-05 17:34:00,45.6,44.3,29.81,SSE,162,0.0,0.0,95,0.00,,,0.10,Wunderground v.1.15,2013-03-05 22:34:00,
2013-03-05 17:37:00,45.6,44.3,29.80,SSE,162,0.0,0.0,95,0.00,,,0.10,Wunderground v.1.15,2013-03-05 22:37:00,
2013-03-05 17:38:00,45.6,44.3,29.80,SSE,162,0.0,0.0,95,0.00,,,0.10,Wunderground v.1.15,2013-03-05 22:38:00,
2013-03-05 17:40:00,45.6,44.3,29.80,SSE,162,0.0,1.0,95,0.00,,,0.10,Wunderground v.1.15,2013-03-05 22:40:00,
2013-03-05 17:42:00,45.6,44.3,29.80,SSE,162,0.0,0.0,95,0.00,,,0.10,Wunderground v.1.15,2013-03-05 22:42:00,
2013-03-05 17:43:00,45.6,44.3,29.80,SSE,162,1.0,1.0,95,0.00,,,0.10,Wunderground v.1.15,2013-03-05 22:43:00,
2013-03-05 17:45:00,45.6,44.3,29.80,ENE,70,1.0,2.0,95,0.00,,,0.10,Wunderground v.1.15,2013-03-05 22:45:00,
2013-03-05 17:47:00,45.6,44.3,29.80,ENE,75,1.0,2.0,95,0.00,,,0.10,Wunderground v.1.15,2013-03-05 22:47:00,
2013-03-05 17:48:00,45.6,44.3,29.80,ENE,75,1.0,2.0,95,0.00,,,0.10,Wunderground v.1.15,2013-03-05 22:48:00,
2013-03-05 17:50:00,45.6,44.3,29.80,ENE,75,1.0,1.0,95,0.00,,,0.10,Wunderground v.1.15,2013-03-05 22:50:00,
2013-03-05 17:52:00,45.6,44.3,29.80,ENE,75,0.0,1.0,95,0.00,,,0.10,Wunderground v.1.15,2013-03-05 22:52:00,
2013-03-05 17:53:00,45.6,44.3,29.79,ENE,75,0.0,1.0,95,0.00,,,0.10,Wunderground v.1.15,2013-03-05 22:53:00,
2013-03-05 17:56:00,45.6,44.3,29.79,East,84,1.0,2.0,95,0.00,,,0.10,Wunderground v.1.15,2013-03-05 22:56:00,
2013-03-05 17:58:00,45.6,44.3,29.79,NNE,30,2.0,3.0,95,0.00,,,0.10,Wunderground v.1.15,2013-03-05 22:58:00,
2013-03-05 18:01:00,45.5,44.2,29.79,ESE,107,0.0,2.0,95,0.00,,,0.10,Wunderground v.1.15,2013-03-05 23:01:00,
2013-03-05 18:03:00,45.5,44.2,29.79,ESE,107,0.0,2.0,95,0.00,,,0.10,Wunderground v.1.15,2013-03-05 23:03:00,
2013-03-05 18:06:00,45.5,44.2,29.79,ESE,102,2.0,2.0,95,0.00,,,0.10,Wunderground v.1.15,2013-03-05 23:06:00,
2013-03-05 18:08:00,45.5,44.2,29.79,East,96,1.0,2.0,95,0.00,,,0.10,Wunderground v.1.15,2013-03-05 23:08:00,
2013-03-05 18:11:00,45.5,44.2,29.78,ENE,76,2.0,2.0,95,0.00,,,0.10,Wunderground v.1.15,2013-03-05 23:11:00,
2013-03-05 18:13:00,45.5,44.2,29.78,East,80,2.0,3.0,95,0.00,,,0.10,Wunderground v.1.15,2013-03-05 23:13:00,
2013-03-05 18:14:00,45.5,44.2,29.78,East,80,1.0,3.0,95,0.00,,,0.10,Wunderground v.1.15,2013-03-05 23:14:00,
2013-03-05 18:17:00,45.4,44.1,29.79,East,80,1.0,3.0,95,0.00,,,0.10,Wunderground v.1.15,2013-03-05 23:17:00,
2013-03-05 18:18:00,45.4,44.1,29.79,ENE,69,2.0,3.0,95,0.00,,,0.10,Wunderground v.1.15,2013-03-05 23:18:00,
2013-03-05 18:19:00,45.3,44.0,29.78,ENE,75,2.0,3.0,95,0.00,,,0.10,Wunderground v.1.15,2013-03-05 23:19:00,
2013-03-05 18:22:00,45.3,44.0,29.78,East,86,2.0,2.0,95,0.00,,,0.10,Wunderground v.1.15,2013-03-05 23:22:00,
2013-03-05 18:23:00,45.3,44.0,29.78,ENE,72,3.0,4.0,95,0.00,,,0.10,Wunderground v.1.15,2013-03-05 23:23:00,
2013-03-05 18:24:00,45.3,44.0,29.78,ENE,65,2.0,4.0,95,0.00,,,0.10,Wunderground v.1.15,2013-03-05 23:24:00,
2013-03-05 18:27:00,45.3,44.0,29.78,ENE,78,2.0,4.0,95,0.00,,,0.10,Wunderground v.1.15,2013-03-05 23:27:00,
2013-03-05 18:28:00,45.3,44.0,29.78,ENE,65,3.0,4.0,95,0.00,,,0.10,Wunderground v.1.15,2013-03-05 23:28:00,
2013-03-05 18:29:00,45.3,44.0,29.78,ENE,75,1.0,4.0,95,0.00,,,0.10,Wunderground v.1.15,2013-03-05 23:29:00,
2013-03-05 18:32:00,45.3,44.0,29.77,ENE,60,1.0,3.0,95,0.00,,,0.10,Wunderground v.1.15,2013-03-05 23:32:00,
2013-03-05 18:33:00,45.3,44.0,29.77,East,84,2.0,3.0,95,0.00,,,0.10,Wunderground v.1.15,2013-03-05 23:33:00,
2013-03-05 18:34:00,45.3,44.0,29.77,ENE,77,2.0,3.0,95,0.00,,,0.10,Wunderground v.1.15,2013-03-05 23:34:00,
2013-03-05 18:37:00,45.2,43.9,29.76,ENE,67,2.0,3.0,95,0.00,,,0.10,Wunderground v.1.15,2013-03-05 23:37:00,
2013-03-05 18:38:00,45.2,43.9,29.76,ENE,65,3.0,3.0,95,0.00,,,0.10,Wunderground v.1.15,2013-03-05 23:38:00,
2013-03-05 18:39:00,45.2,43.9,29.76,East,80,1.0,3.0,95,0.00,,,0.10,Wunderground v.1.15,2013-03-05 23:39:00,
2013-03-05 18:40:00,45.2,43.9,29.76,East,80,3.0,3.0,95,0.00,,,0.10,Wunderground v.1.15,2013-03-05 23:40:00,
2013-03-05 18:43:00,45.2,43.9,29.76,East,85,1.0,4.0,95,0.00,,,0.10,Wunderground v.1.15,2013-03-05 23:43:00,
2013-03-05 18:44:00,45.2,43.9,29.76,NE,37,2.0,4.0,95,0.00,,,0.10,Wunderground v.1.15,2013-03-05 23:44:00,
2013-03-05 18:45:00,45.2,43.9,29.76,ENE,65,2.0,4.0,95,0.00,,,0.10,Wunderground v.1.15,2013-03-05 23:45:00,
2013-03-05 18:48:00,45.2,43.9,29.75,ENE,69,3.0,5.0,95,0.00,,,0.10,Wunderground v.1.15,2013-03-05 23:48:00,
2013-03-05 18:49:00,45.2,43.9,29.75,ENE,68,4.0,5.0,95,0.00,,,0.10,Wunderground v.1.15,2013-03-05 23:49:00,
2013-03-05 18:50:00,45.2,43.9,29.75,ENE,64,2.0,6.0,95,0.00,,,0.10,Wunderground v.1.15,2013-03-05 23:50:00,
2013-03-05 18:53:00,45.2,43.9,29.75,NNE,30,1.0,7.0,95,0.00,,,0.10,Wunderground v.1.15,2013-03-05 23:53:00,
2013-03-05 18:54:00,45.2,43.9,29.75,ENE,75,2.0,7.0,95,0.00,,,0.10,Wunderground v.1.15,2013-03-05 23:54:00,
2013-03-05 18:55:00,45.2,43.9,29.75,ENE,72,1.0,7.0,95,0.00,,,0.10,Wunderground v.1.15,2013-03-05 23:55:00,
2013-03-05 18:58:00,45.2,43.9,29.74,ENE,63,1.0,7.0,95,0.00,,,0.10,Wunderground v.1.15,2013-03-05 23:58:00,
2013-03-05 18:59:00,45.2,43.9,29.74,East,80,2.0,7.0,95,0.00,,,0.10,Wunderground v.1.15,2013-03-05 23:59:00,
2013-03-05 19:00:00,45.2,43.9,29.75,ENE,73,3.0,7.0,95,0.00,,,0.10,Wunderground v.1.15,2013-03-06 00:00:00,
2013-03-05 19:03:00,45.2,43.9,29.75,ENE,69,3.0,3.0,95,0.00,,,0.10,Wunderground v.1.15,2013-03-06 00:03:00,
2013-03-05 19:04:00,45.2,43.9,29.74,ENE,75,2.0,3.0,95,0.00,,,0.10,Wunderground v.1.15,2013-03-06 00:04:00,
2013-03-05 19:05:00,45.2,43.9,29.74,ENE,78,2.0,3.0,95,0.00,,,0.10,Wunderground v.1.15,2013-03-06 00:05:00,
2013-03-05 19:08:00,45.2,43.9,29.73,NE,41,3.0,5.0,95,0.00,,,0.10,Wunderground v.1.15,2013-03-06 00:08:00,
2013-03-05 19:09:00,45.2,43.9,29.73,ENE,69,2.0,6.0,95,0.00,,,0.10,Wunderground v.1.15,2013-03-06 00:09:00,
2013-03-05 19:10:00,45.2,43.9,29.74,East,87,1.0,6.0,95,0.00,,,0.10,Wunderground v.1.15,2013-03-06 00:10:00,
2013-03-05 19:14:00,45.2,43.9,29.74,East,91,1.0,6.0,95,0.00,,,0.10,Wunderground v.1.15,2013-03-06 00:14:00,
2013-03-05 19:15:00,45.2,43.9,29.74,ENE,70,4.0,6.0,95,0.00,,,0.10,Wunderground v.1.15,2013-03-06 00:15:00,
2013-03-05 19:19:00,45.3,44.0,29.74,East,82,2.0,6.0,95,0.00,,,0.10,Wunderground v.1.15,2013-03-06 00:19:00,
2013-03-05 19:20:00,45.3,44.0,29.74,ENE,72,3.0,6.0,95,0.00,,,0.10,Wunderground v.1.15,2013-03-06 00:20:00,
2013-03-05 19:24:00,45.3,44.0,29.73,ENE,78,3.0,5.0,95,0.00,,,0.10,Wunderground v.1.15,2013-03-06 00:24:00,
2013-03-05 19:25:00,45.3,44.0,29.73,ENE,65,3.0,5.0,95,0.00,,,0.10,Wunderground v.1.15,2013-03-06 00:25:00,
2013-03-05 19:26:00,45.3,44.0,29.73,East,81,2.0,5.0,95,0.00,,,0.10,Wunderground v.1.15,2013-03-06 00:26:00,
2013-03-05 19:30:00,45.3,44.0,29.73,East,81,1.0,8.0,95,0.00,,,0.10,Wunderground v.1.15,2013-03-06 00:30:00,
2013-03-05 19:31:00,45.3,44.0,29.73,East,80,0.0,3.0,95,0.00,,,0.10,Wunderground v.1.15,2013-03-06 00:31:00,
2013-03-05 19:35:00,45.3,44.0,29.72,ENE,65,4.0,4.0,95,0.00,,,0.10,Wunderground v.1.15,2013-03-06 00:35:00,
2013-03-05 19:36:00,45.3,44.0,29.73,ENE,68,1.0,4.0,95,0.00,,,0.10,Wunderground v.1.15,2013-03-06 00:36:00,
2013-03-05 19:40:00,45.3,44.0,29.72,East,84,4.0,4.0,95,0.00,,,0.10,Wunderground v.1.15,2013-03-06 00:40:00,
2013-03-05 19:41:00,45.3,44.0,29.72,ENE,72,2.0,5.0,95,0.00,,,0.10,Wunderground v.1.15,2013-03-06 00:41:00,
2013-03-05 19:45:00,45.3,43.7,29.71,ENE,72,1.0,5.0,94,0.00,,,0.10,Wunderground v.1.15,2013-03-06 00:45:00,
2013-03-05 19:46:00,45.3,43.7,29.71,ENE,75,2.0,5.0,94,0.00,,,0.10,Wunderground v.1.15,2013-03-06 00:46:00,
2013-03-05 19:50:00,45.3,43.7,29.70,ENE,70,4.0,4.0,94,0.00,,,0.10,Wunderground v.1.15,2013-03-06 00:50:00,
2013-03-05 19:51:00,45.3,43.7,29.70,East,91,2.0,4.0,94,0.00,,,0.10,Wunderground v.1.15,2013-03-06 00:51:00,
2013-03-05 19:55:00,45.3,43.7,29.69,ENE,64,3.0,5.0,94,0.00,,,0.10,Wunderground v.1.15,2013-03-06 00:55:00,
2013-03-05 19:56:00,45.3,43.7,29.69,ENE,61,2.0,6.0,94,0.00,,,0.10,Wunderground v.1.15,2013-03-06 00:56:00,
2013-03-05 19:57:00,45.3,43.7,29.69,NE,48,3.0,6.0,94,0.00,,,0.10,Wunderground v.1.15,2013-03-06 00:57:00,
2013-03-05 20:00:00,45.3,43.7,29.68,NE,56,2.0,4.0,94,0.00,,,0.10,Wunderground v.1.15,2013-03-06 01:00:00,
2013-03-05 20:01:00,45.3,43.7,29.68,ENE,69,7.0,7.0,94,0.00,,,0.10,Wunderground v.1.15,2013-03-06 01:01:00,
2013-03-05 20:02:00,45.3,43.7,29.68,ENE,63,3.0,7.0,94,0.00,,,0.10,Wunderground v.1.15,2013-03-06 01:02:00,
2013-03-05 20:05:00,45.2,43.6,29.67,East,96,1.0,7.0,94,0.00,,,0.10,Wunderground v.1.15,2013-03-06 01:05:00,
2013-03-05 20:06:00,45.3,43.7,29.67,NNE,33,3.0,7.0,94,0.00,,,0.10,Wunderground v.1.15,2013-03-06 01:06:00,
2013-03-05 20:07:00,45.3,43.7,29.67,NNE,32,3.0,7.0,94,0.00,,,0.10,Wunderground v.1.15,2013-03-06 01:07:00,
2013-03-05 20:10:00,45.2,43.6,29.67,ENE,68,0.0,3.0,94,0.00,,,0.10,Wunderground v.1.15,2013-03-06 01:10:00,
2013-03-05 20:12:00,45.2,43.6,29.67,SSW,193,1.0,3.0,94,0.00,,,0.10,Wunderground v.1.15,2013-03-06 01:12:00,
2013-03-05 20:15:00,45.2,43.6,29.67,NE,54,3.0,6.0,94,0.00,,,0.10,Wunderground v.1.15,2013-03-06 01:15:00,
2013-03-05 20:17:00,45.2,43.6,29.67,ENE,57,2.0,6.0,94,0.00,,,0.10,Wunderground v.1.15,2013-03-06 01:17:00,
2013-03-05 20:21:00,45.2,43.6,29.67,NE,52,3.0,3.0,94,0.00,,,0.10,Wunderground v.1.15,2013-03-06 01:21:00,
2013-03-05 20:22:00,45.2,43.6,29.67,NE,51,4.0,6.0,94,0.00,,,0.10,Wunderground v.1.15,2013-03-06 01:22:00,
2013-03-05 20:26:00,45.3,43.7,29.66,ENE,65,2.0,13.0,94,0.00,,,0.10,Wunderground v.1.15,2013-03-06 01:26:00,
2013-03-05 20:27:00,45.3,43.7,29.66,ENE,65,5.0,13.0,94,0.00,,,0.10,Wunderground v.1.15,2013-03-06 01:27:00,
2013-03-05 20:31:00,45.3,43.7,29.65,NE,51,4.0,6.0,94,0.00,,,0.10,Wunderground v.1.15,2013-03-06 01:31:00,
2013-03-05 20:32:00,45.3,43.7,29.65,ESE,119,2.0,9.0,94,0.00,,,0.10,Wunderground v.1.15,2013-03-06 01:32:00,
2013-03-05 20:33:00,45.3,43.4,29.65,ENE,72,2.0,9.0,93,0.00,,,0.10,Wunderground v.1.15,2013-03-06 01:33:00,
2013-03-05 20:36:00,45.3,43.4,29.65,NE,39,2.0,9.0,93,0.00,,,0.10,Wunderground v.1.15,2013-03-06 01:36:00,
2013-03-05 20:37:00,45.3,43.4,29.64,ENE,70,0.0,9.0,93,0.00,,,0.10,Wunderground v.1.15,2013-03-06 01:37:00,
2013-03-05 20:38:00,45.4,43.5,29.64,ENE,71,0.0,9.0,93,0.00,,,0.10,Wunderground v.1.15,2013-03-06 01:38:00,
2013-03-05 20:41:00,45.5,43.6,29.64,SE,126,0.0,4.0,93,0.00,,,0.10,Wunderground v.1.15,2013-03-06 01:41:00,
2013-03-05 20:42:00,45.5,43.6,29.64,ESE,112,1.0,4.0,93,0.00,,,0.10,Wunderground v.1.15,2013-03-06 01:42:00,
2013-03-05 20:43:00,45.5,43.6,29.64,ENE,72,4.0,4.0,93,0.00,,,0.10,Wunderground v.1.15,2013-03-06 01:43:00,
2013-03-05 20:47:00,45.6,43.7,29.64,East,82,4.0,7.0,93,0.00,,,0.10,Wunderground v.1.15,2013-03-06 01:47:00,
2013-03-05 20:48:00,45.6,43.7,29.64,SSW,212,1.0,7.0,93,0.00,,,0.10,Wunderground v.1.15,2013-03-06 01:48:00,
2013-03-05 20:51:00,45.7,43.5,29.64,ENE,74,2.0,6.0,92,0.00,,,0.10,Wunderground v.1.15,2013-03-06 01:51:00,
2013-03-05 20:52:00,45.7,43.5,29.64,ENE,76,0.0,6.0,92,0.00,,,0.10,Wunderground v.1.15,2013-03-06 01:52:00,
2013-03-05 20:53:00,45.7,43.5,29.64,East,93,1.0,6.0,92,0.00,,,0.10,Wunderground v.1.15,2013-03-06 01:53:00,
2013-03-05 20:57:00,45.7,43.5,29.64,SSW,203,1.0,6.0,92,0.00,,,0.10,Wunderground v.1.15,2013-03-06 01:57:00,
2013-03-05 20:58:00,45.7,43.5,29.64,NE,49,4.0,6.0,92,0.00,,,0.10,Wunderground v.1.15,2013-03-06 01:58:00,
2013-03-05 21:02:00,45.6,43.7,29.64,East,84,1.0,4.0,93,0.00,,,0.10,Wunderground v.1.15,2013-03-06 02:02:00,
2013-03-05 21:03:00,45.6,43.7,29.64,East,80,2.0,4.0,93,0.00,,,0.10,Wunderground v.1.15,2013-03-06 02:03:00,
2013-03-05 21:07:00,45.5,43.6,29.64,SE,130,2.0,5.0,93,0.00,,,0.10,Wunderground v.1.15,2013-03-06 02:07:00,
2013-03-05 21:08:00,45.4,43.5,29.64,ESE,110,1.0,5.0,93,0.00,,,0.10,Wunderground v.1.15,2013-03-06 02:08:00,
2013-03-05 21:09:00,45.4,43.5,29.63,NE,42,3.0,5.0,93,0.00,,,0.11,Wunderground v.1.15,2013-03-06 02:09:00,
2013-03-05 21:13:00,45.4,43.5,29.63,East,95,2.0,2.0,93,0.00,,,0.11,Wunderground v.1.15,2013-03-06 02:13:00,
2013-03-05 21:14:00,45.3,43.4,29.63,ENE,72,4.0,4.0,93,0.00,,,0.11,Wunderground v.1.15,2013-03-06 02:14:00,
2013-03-05 21:18:00,45.3,43.4,29.62,ENE,62,5.0,7.0,93,0.00,,,0.11,Wunderground v.1.15,2013-03-06 02:18:00,
2013-03-05 21:19:00,45.3,43.4,29.62,East,97,0.0,7.0,93,0.00,,,0.11,Wunderground v.1.15,2013-03-06 02:19:00,
2013-03-05 21:23:00,45.3,43.7,29.62,SSE,150,1.0,2.0,94,0.00,,,0.11,Wunderground v.1.15,2013-03-06 02:23:00,
2013-03-05 21:24:00,45.3,43.7,29.62,ENE,75,4.0,4.0,94,0.04,,,0.12,Wunderground v.1.15,2013-03-06 02:24:00,
2013-03-05 21:28:00,45.2,43.6,29.60,ENE,78,5.0,8.0,94,0.04,,,0.12,Wunderground v.1.15,2013-03-06 02:28:00,
2013-03-05 21:30:00,45.2,43.6,29.61,ENE,78,2.0,8.0,94,0.04,,,0.12,Wunderground v.1.15,2013-03-06 02:30:00,
2013-03-05 21:33:00,45.2,43.6,29.61,NE,43,0.0,3.0,94,0.09,,,0.13,Wunderground v.1.15,2013-03-06 02:33:00,
2013-03-05 21:34:00,45.2,43.6,29.61,SSW,203,2.0,3.0,94,0.09,,,0.13,Wunderground v.1.15,2013-03-06 02:34:00,
2013-03-05 21:35:00,45.2,43.6,29.61,ENE,72,2.0,5.0,94,0.09,,,0.13,Wunderground v.1.15,2013-03-06 02:35:00,
2013-03-05 21:38:00,45.2,43.6,29.61,SSE,166,0.0,5.0,94,0.08,,,0.13,Wunderground v.1.15,2013-03-06 02:38:00,
2013-03-05 21:39:00,45.2,43.6,29.60,South,176,0.0,5.0,94,0.08,,,0.13,Wunderground v.1.15,2013-03-06 02:39:00,
2013-03-05 21:40:00,45.2,43.6,29.60,East,98,1.0,1.0,94,0.06,,,0.13,Wunderground v.1.15,2013-03-06 02:40:00,
2013-03-05 21:44:00,45.1,43.5,29.59,NE,52,2.0,3.0,94,0.05,,,0.14,Wunderground v.1.15,2013-03-06 02:44:00,
2013-03-05 21:45:00,45.1,43.5,29.59,NE,41,1.0,3.0,94,0.05,,,0.14,Wunderground v.1.15,2013-03-06 02:45:00,
2013-03-05 21:49:00,45.1,43.5,29.59,SE,124,1.0,3.0,94,0.05,,,0.14,Wunderground v.1.15,2013-03-06 02:49:00,
2013-03-05 21:51:00,45.1,43.5,29.59,ESE,106,1.0,1.0,94,0.05,,,0.14,Wunderground v.1.15,2013-03-06 02:51:00,
2013-03-05 21:54:00,45.1,43.8,29.59,ENE,70,2.0,3.0,95,0.05,,,0.14,Wunderground v.1.15,2013-03-06 02:54:00,
2013-03-05 21:56:00,45.1,43.8,29.59,East,89,2.0,3.0,95,0.05,,,0.14,Wunderground v.1.15,2013-03-06 02:56:00,
2013-03-05 21:59:00,45.1,43.8,29.59,SW,231,0.0,5.0,95,0.04,,,0.15,Wunderground v.1.15,2013-03-06 02:59:00,
2013-03-05 22:01:00,45.1,43.8,29.59,WSW,242,0.0,2.0,95,0.30,,,0.16,Wunderground v.1.15,2013-03-06 03:01:00,
2013-03-05 22:04:00,45.1,43.8,29.58,ENE,67,2.0,4.0,95,0.17,,,0.17,Wunderground v.1.15,2013-03-06 03:04:00,
2013-03-05 22:05:00,45.1,43.8,29.58,NNE,20,2.0,4.0,95,0.17,,,0.17,Wunderground v.1.15,2013-03-06 03:05:00,
2013-03-05 22:06:00,45.1,43.8,29.59,East,89,0.0,4.0,95,0.17,,,0.17,Wunderground v.1.15,2013-03-06 03:06:00,
2013-03-05 22:10:00,45.1,43.8,29.59,East,89,0.0,4.0,95,0.12,,,0.18,Wunderground v.1.15,2013-03-06 03:10:00,
2013-03-05 22:11:00,45.1,43.8,29.59,ESE,121,1.0,1.0,95,0.29,,,0.19,Wunderground v.1.15,2013-03-06 03:11:00,
2013-03-05 22:12:00,45.1,43.8,29.58,NE,56,2.0,2.0,95,0.29,,,0.19,Wunderground v.1.15,2013-03-06 03:12:00,
2013-03-05 22:15:00,45.1,43.8,29.59,WNW,297,1.0,2.0,95,0.25,,,0.21,Wunderground v.1.15,2013-03-06 03:15:00,
2013-03-05 22:16:00,45.1,43.8,29.59,WNW,301,0.0,2.0,95,0.39,,,0.22,Wunderground v.1.15,2013-03-06 03:16:00,
2013-03-05 22:17:00,45.1,43.8,29.59,WNW,301,0.0,2.0,95,0.39,,,0.22,Wunderground v.1.15,2013-03-06 03:17:00,
2013-03-05 22:20:00,45.1,43.8,29.59,North,5,0.0,1.0,95,0.27,,,0.23,Wunderground v.1.15,2013-03-06 03:20:00,
2013-03-05 22:21:00,45.1,43.8,29.59,North,5,0.0,1.0,95,0.65,,,0.25,Wunderground v.1.15,2013-03-06 03:21:00,
2013-03-05 22:22:00,45.1,43.8,29.59,North,5,0.0,1.0,95,0.41,,,0.25,Wunderground v.1.15,2013-03-06 03:22:00,
2013-03-05 22:25:00,45.1,43.8,29.60,North,4,0.0,1.0,95,0.46,,,0.27,Wunderground v.1.15,2013-03-06 03:25:00,
2013-03-05 22:26:00,45.1,43.8,29.60,ESE,118,2.0,2.0,95,0.29,,,0.28,Wunderground v.1.15,2013-03-06 03:26:00,
2013-03-05 22:28:00,45.1,43.8,29.59,ESE,108,3.0,3.0,95,0.29,,,0.28,Wunderground v.1.15,2013-03-06 03:28:00,
2013-03-05 22:30:00,45.1,44.0,29.60,SSW,208,0.0,1.0,96,0.28,,,0.30,Wunderground v.1.15,2013-03-06 03:30:00,
2013-03-05 22:32:00,45.1,44.0,29.59,SE,124,1.0,2.0,96,0.28,,,0.30,Wunderground v.1.15,2013-03-06 03:32:00,
2013-03-05 22:34:00,45.2,44.1,29.59,SW,221,1.0,2.0,96,0.25,,,0.31,Wunderground v.1.15,2013-03-06 03:34:00,
2013-03-05 22:35:00,45.3,44.2,29.59,North,356,1.0,2.0,96,0.20,,,0.31,Wunderground v.1.15,2013-03-06 03:35:00,
2013-03-05 22:36:00,45.2,44.1,29.59,North,355,0.0,2.0,96,0.18,,,0.31,Wunderground v.1.15,2013-03-06 03:36:00,
2013-03-05 22:37:00,45.3,44.2,29.59,North,356,0.0,2.0,96,0.13,,,0.31,Wunderground v.1.15,2013-03-06 03:37:00,
2013-03-05 22:39:00,45.3,44.2,29.58,North,8,1.0,2.0,96,0.10,,,0.31,Wunderground v.1.15,2013-03-06 03:39:00,
2013-03-05 22:40:00,45.3,44.2,29.58,East,82,0.0,1.0,96,0.08,,,0.31,Wunderground v.1.15,2013-03-06 03:40:00,
2013-03-05 22:41:00,45.2,44.1,29.58,East,82,0.0,1.0,96,0.07,,,0.31,Wunderground v.1.15,2013-03-06 03:41:00,
2013-03-05 22:42:00,45.2,44.1,29.58,SSE,161,0.0,1.0,96,0.06,,,0.31,Wunderground v.1.15,2013-03-06 03:42:00,
2013-03-05 22:44:00,45.3,44.2,29.58,SE,140,1.0,1.0,96,0.05,,,0.31,Wunderground v.1.15,2013-03-06 03:44:00,
2013-03-05 22:46:00,45.4,44.3,29.58,East,91,1.0,2.0,96,0.05,,,0.31,Wunderground v.1.15,2013-03-06 03:46:00,
2013-03-05 22:47:00,45.4,44.3,29.58,ESE,120,0.0,2.0,96,0.04,,,0.31,Wunderground v.1.15,2013-03-06 03:47:00,
2013-03-05 22:49:00,45.5,44.4,29.57,ESE,117,0.0,2.0,96,0.04,,,0.31,Wunderground v.1.15,2013-03-06 03:49:00,
2013-03-05 22:51:00,45.6,44.5,29.57,ESE,117,1.0,1.0,96,0.00,,,0.31,Wunderground v.1.15,2013-03-06 03:51:00,
2013-03-05 22:52:00,45.6,44.5,29.57,ENE,71,2.0,2.0,96,0.00,,,0.31,Wunderground v.1.15,2013-03-06 03:52:00,
2013-03-05 22:54:00,45.6,44.5,29.57,ENE,72,2.0,2.0,96,0.00,,,0.31,Wunderground v.1.15,2013-03-06 03:54:00,
2013-03-05 22:56:00,45.7,44.6,29.57,ENE,72,0.0,2.0,96,0.00,,,0.31,Wunderground v.1.15,2013-03-06 03:56:00,
2013-03-05 22:57:00,45.7,44.6,29.57,ENE,72,0.0,2.0,96,0.00,,,0.31,Wunderground v.1.15,2013-03-06 03:57:00,
2013-03-05 22:59:00,45.7,44.6,29.57,ENE,72,0.0,2.0,96,0.00,,,0.31,Wunderground v.1.15,2013-03-06 03:59:00,
2013-03-05 23:01:00,45.7,44.6,29.56,ENE,72,1.0,1.0,96,0.00,,,0.31,Wunderground v.1.15,2013-03-06 04:01:00,
2013-03-05 23:02:00,45.7,44.6,29.56,ENE,72,0.0,1.0,96,0.00,,,0.31,Wunderground v.1.15,2013-03-06 04:02:00,
2013-03-05 23:04:00,45.7,44.6,29.56,ENE,72,0.0,1.0,96,0.00,,,0.31,Wunderground v.1.15,2013-03-06 04:04:00,
2013-03-05 23:06:00,45.7,44.6,29.56,ENE,72,0.0,1.0,96,0.00,,,0.31,Wunderground v.1.15,2013-03-06 04:06:00,
2013-03-05 23:07:00,45.7,44.6,29.56,ENE,72,0.0,1.0,96,0.00,,,0.31,Wunderground v.1.15,2013-03-06 04:07:00,
2013-03-05 23:09:00,45.7,44.6,29.56,ENE,72,0.0,1.0,96,0.00,,,0.31,Wunderground v.1.15,2013-03-06 04:09:00,
2013-03-05 23:11:00,45.7,44.6,29.56,ENE,72,0.0,0.0,96,0.00,,,0.31,Wunderground v.1.15,2013-03-06 04:11:00,
2013-03-05 23:12:00,45.7,44.6,29.56,ENE,72,0.0,0.0,96,0.00,,,0.31,Wunderground v.1.15,2013-03-06 04:12:00,
2013-03-05 23:14:00,45.7,44.6,29.56,ENE,72,0.0,0.0,96,0.00,,,0.31,Wunderground v.1.15,2013-03-06 04:14:00,
2013-03-05 23:16:00,45.7,44.6,29.56,ENE,72,0.0,0.0,96,0.00,,,0.31,Wunderground v.1.15,2013-03-06 04:16:00,
2013-03-05 23:17:00,45.7,44.6,29.56,ENE,72,0.0,0.0,96,0.00,,,0.31,Wunderground v.1.15,2013-03-06 04:17:00,
2013-03-05 23:19:00,45.8,44.7,29.55,ENE,72,0.0,0.0,96,0.00,,,0.31,Wunderground v.1.15,2013-03-06 04:19:00,
2013-03-05 23:22:00,45.8,44.7,29.55,ENE,72,1.0,1.0,96,0.00,,,0.31,Wunderground v.1.15,2013-03-06 04:22:00,
2013-03-05 23:24:00,45.9,44.8,29.54,ENE,72,0.0,2.0,96,0.00,,,0.31,Wunderground v.1.15,2013-03-06 04:24:00,
2013-03-05 23:27:00,45.9,44.8,29.54,ENE,72,0.0,2.0,96,0.00,,,0.31,Wunderground v.1.15,2013-03-06 04:27:00,
2013-03-05 23:29:00,45.9,44.8,29.54,ENE,72,0.0,2.0,96,0.00,,,0.31,Wunderground v.1.15,2013-03-06 04:29:00,
2013-03-05 23:32:00,45.9,44.8,29.53,ENE,72,0.0,0.0,96,0.00,,,0.31,Wunderground v.1.15,2013-03-06 04:32:00,
2013-03-05 23:34:00,45.9,44.8,29.53,East,82,0.0,1.0,96,0.00,,,0.31,Wunderground v.1.15,2013-03-06 04:34:00,
2013-03-05 23:37:00,46.0,44.9,29.53,SSE,162,0.0,1.0,96,0.00,,,0.31,Wunderground v.1.15,2013-03-06 04:37:00,
2013-03-05 23:38:00,45.9,44.8,29.53,SSE,162,0.0,1.0,96,0.00,,,0.31,Wunderground v.1.15,2013-03-06 04:38:00,
2013-03-05 23:39:00,45.9,44.8,29.52,SSE,162,0.0,1.0,96,0.00,,,0.31,Wunderground v.1.15,2013-03-06 04:39:00,
2013-03-05 23:42:00,45.9,44.8,29.52,SSE,162,0.0,0.0,96,0.00,,,0.31,Wunderground v.1.15,2013-03-06 04:42:00,
2013-03-05 23:43:00,45.9,44.8,29.52,SSE,162,0.0,0.0,96,0.00,,,0.31,Wunderground v.1.15,2013-03-06 04:43:00,
2013-03-05 23:44:00,45.9,44.8,29.52,SSE,162,0.0,0.0,96,0.00,,,0.31,Wunderground v.1.15,2013-03-06 04:44:00,
2013-03-05 23:47:00,45.9,44.8,29.52,SSE,162,0.0,0.0,96,0.00,,,0.31,Wunderground v.1.15,2013-03-06 04:47:00,
2013-03-05 23:48:00,45.9,44.8,29.52,SSE,162,0.0,0.0,96,0.00,,,0.31,Wunderground v.1.15,2013-03-06 04:48:00,
2013-03-05 23:49:00,45.9,44.8,29.52,SSE,162,0.0,0.0,96,0.00,,,0.31,Wunderground v.1.15,2013-03-06 04:49:00,
2013-03-05 23:52:00,45.9,44.8,29.52,SSE,162,0.0,0.0,96,0.00,,,0.31,Wunderground v.1.15,2013-03-06 04:52:00,
2013-03-05 23:53:00,45.9,44.8,29.52,SSE,162,0.0,0.0,96,0.00,,,0.31,Wunderground v.1.15,2013-03-06 04:53:00,
2013-03-05 23:54:00,46.0,44.9,29.52,SSE,162,0.0,0.0,96,0.00,,,0.31,Wunderground v.1.15,2013-03-06 04:54:00,
2013-03-05 23:57:00,46.0,44.9,29.52,SSE,162,0.0,0.0,96,0.00,,,0.31,Wunderground v.1.15,2013-03-06 04:57:00,
2013-03-05 23:58:00,46.0,44.9,29.52,SSE,162,0.0,0.0,96,0.00,,,0.31,Wunderground v.1.15,2013-03-06 04:58:00,
2013-03-05 23:59:00,46.0,45.2,29.52,SSE,166,0.0,0.0,97,0.00,,,0.31,Wunderground v.1.15,2013-03-06 04:59:00,